<?xml version="1.0" encoding="UTF-8" standalone="yes"?>
<gpx
 xmlns="http://www.topografix.com/GPX/1/1"
 creator="OziExplorer Version 3956f - http://www.oziexplorer.com"
 version="1.1"
 xmlns:xsi="http://www.w3.org/2001/XMLSchema-instance"
 xsi:schemaLocation="http://www.topografix.com/GPX/1/1 http://www.topografix.com/GPX/1/1/gpx.xsd">
<metadata>
 <time>2023-12-12T08:06:37Z</time>
 <bounds minlat="30.892370" minlon="34.887300" maxlat="30.990260" maxlon="34.985610"/>
</metadata>
<wpt lat="30.9888198" lon="34.9114886">
 <time>2023-12-12T10:01:28.862Z</time>
 <name>St\Fin</name>
 <sym>Bike Trail</sym>
</wpt>
<wpt lat="30.8932161" lon="34.9161756">
 <time>2023-12-12T10:01:28.882Z</time>
 <name>Tatspit3</name>
 <sym>Flag, Red</sym>
</wpt>
<wpt lat="30.9641284" lon="34.9650133">
 <time>2023-12-12T10:01:28.882Z</time>
 <name>Tatspit4</name>
 <sym>Flag, Red</sym>
</wpt>
<wpt lat="30.9740100" lon="34.8873000">
 <time>2023-12-12T10:01:28.883Z</time>
 <name>Helmoniot</name>
 <sym>Flag, Red</sym>
</wpt>
<wpt lat="30.9276600" lon="34.9307600">
 <time>2023-12-12T10:01:28.884Z</time>
 <name>Tatspit1</name>
 <sym>Flag, Red</sym>
</wpt>
<wpt lat="30.9664900" lon="34.9670600">
 <time>2023-12-12T10:01:28.884Z</time>
 <name>Vlevo-Singl</name>
 <sym>Flag, Red</sym>
</wpt>
<wpt lat="30.9025500" lon="34.9173500">
 <time>2023-12-12T10:01:28.885Z</time>
 <name>Tatspit2</name>
 <sym>Flag, Red</sym>
</wpt>
<trk>
 <name>MahtGadol+Helm_43 km.900m</name>
 <desc>MahtGadol+Helm_43 km.900m</desc>
<trkseg>
<trkpt lat="30.9899800" lon="34.9121900">
<ele>451.140015</ele>
<time>2023-12-12T10:01:28.888Z</time>
</trkpt>
<trkpt lat="30.9901200" lon="34.9119500">
<ele>451.850006</ele>
<time>2023-12-12T10:01:28.888Z</time>
</trkpt>
<trkpt lat="30.9902600" lon="34.9117500">
<ele>454.929993</ele>
<time>2023-12-12T10:01:28.888Z</time>
</trkpt>
<trkpt lat="30.9902500" lon="34.9117200">
<ele>455.139984</ele>
<time>2023-12-12T10:01:28.888Z</time>
</trkpt>
<trkpt lat="30.9902500" lon="34.9115600">
<ele>456.470001</ele>
<time>2023-12-12T10:01:28.888Z</time>
</trkpt>
<trkpt lat="30.9902100" lon="34.9113500">
<ele>457.019989</ele>
<time>2023-12-12T10:01:28.888Z</time>
</trkpt>
<trkpt lat="30.9901900" lon="34.9110300">
<ele>454.880005</ele>
<time>2023-12-12T10:01:28.888Z</time>
</trkpt>
<trkpt lat="30.9901900" lon="34.9108500">
<ele>453.790009</ele>
<time>2023-12-12T10:01:28.888Z</time>
</trkpt>
<trkpt lat="30.9902300" lon="34.9104700">
<ele>450.700012</ele>
<time>2023-12-12T10:01:28.888Z</time>
</trkpt>
<trkpt lat="30.9902500" lon="34.9097900">
<ele>452.489990</ele>
<time>2023-12-12T10:01:28.888Z</time>
</trkpt>
<trkpt lat="30.9882100" lon="34.9084200">
<ele>459.089996</ele>
<time>2023-12-12T10:01:28.888Z</time>
</trkpt>
<trkpt lat="30.9874700" lon="34.9078500">
<ele>452.340027</ele>
<time>2023-12-12T10:01:28.888Z</time>
</trkpt>
<trkpt lat="30.9869100" lon="34.9072500">
<ele>452.959991</ele>
<time>2023-12-12T10:01:28.888Z</time>
</trkpt>
<trkpt lat="30.9867500" lon="34.9069000">
<ele>453.649994</ele>
<time>2023-12-12T10:01:28.888Z</time>
</trkpt>
<trkpt lat="30.9866900" lon="34.9063700">
<ele>451.839996</ele>
<time>2023-12-12T10:01:28.888Z</time>
</trkpt>
<trkpt lat="30.9867000" lon="34.9051400">
<ele>446.829987</ele>
<time>2023-12-12T10:01:28.888Z</time>
</trkpt>
<trkpt lat="30.9864400" lon="34.9040300">
<ele>451.799988</ele>
<time>2023-12-12T10:01:28.888Z</time>
</trkpt>
<trkpt lat="30.9862200" lon="34.9035400">
<ele>454.059998</ele>
<time>2023-12-12T10:01:28.888Z</time>
</trkpt>
<trkpt lat="30.9858800" lon="34.9024100">
<ele>449.680023</ele>
<time>2023-12-12T10:01:28.888Z</time>
</trkpt>
<trkpt lat="30.9855500" lon="34.9014600">
<ele>449.489990</ele>
<time>2023-12-12T10:01:28.888Z</time>
</trkpt>
<trkpt lat="30.9857000" lon="34.9003700">
<ele>445.839996</ele>
<time>2023-12-12T10:01:28.888Z</time>
</trkpt>
<trkpt lat="30.9856800" lon="34.8999800">
<ele>448.589996</ele>
<time>2023-12-12T10:01:28.888Z</time>
</trkpt>
<trkpt lat="30.9855200" lon="34.8995100">
<ele>453.839996</ele>
<time>2023-12-12T10:01:28.888Z</time>
</trkpt>
<trkpt lat="30.9853700" lon="34.8992800">
<ele>452.930023</ele>
<time>2023-12-12T10:01:28.888Z</time>
</trkpt>
<trkpt lat="30.9852500" lon="34.8991900">
<ele>450.840027</ele>
<time>2023-12-12T10:01:28.888Z</time>
</trkpt>
<trkpt lat="30.9851100" lon="34.8991100">
<ele>449.680023</ele>
<time>2023-12-12T10:01:28.888Z</time>
</trkpt>
<trkpt lat="30.9849500" lon="34.8990100">
<ele>450.029968</ele>
<time>2023-12-12T10:01:28.888Z</time>
</trkpt>
<trkpt lat="30.9847600" lon="34.8988700">
<ele>449.420013</ele>
<time>2023-12-12T10:01:28.888Z</time>
</trkpt>
<trkpt lat="30.9845000" lon="34.8987900">
<ele>446.600006</ele>
<time>2023-12-12T10:01:28.888Z</time>
</trkpt>
<trkpt lat="30.9841900" lon="34.8987700">
<ele>445.220001</ele>
<time>2023-12-12T10:01:28.888Z</time>
</trkpt>
<trkpt lat="30.9839900" lon="34.8987000">
<ele>446.980011</ele>
<time>2023-12-12T10:01:28.888Z</time>
</trkpt>
<trkpt lat="30.9833700" lon="34.8982900">
<ele>455.690002</ele>
<time>2023-12-12T10:01:28.888Z</time>
</trkpt>
<trkpt lat="30.9830900" lon="34.8982100">
<ele>454.579987</ele>
<time>2023-12-12T10:01:28.888Z</time>
</trkpt>
<trkpt lat="30.9830100" lon="34.8980000">
<ele>455.070007</ele>
<time>2023-12-12T10:01:28.888Z</time>
</trkpt>
<trkpt lat="30.9829400" lon="34.8975300">
<ele>459.740021</ele>
<time>2023-12-12T10:01:28.888Z</time>
</trkpt>
<trkpt lat="30.9829000" lon="34.8972900">
<ele>460.300018</ele>
<time>2023-12-12T10:01:28.888Z</time>
</trkpt>
<trkpt lat="30.9831600" lon="34.8963600">
<ele>463.989990</ele>
<time>2023-12-12T10:01:28.888Z</time>
</trkpt>
<trkpt lat="30.9831800" lon="34.8960800">
<ele>463.399994</ele>
<time>2023-12-12T10:01:28.888Z</time>
</trkpt>
<trkpt lat="30.9831800" lon="34.8958800">
<ele>463.330017</ele>
<time>2023-12-12T10:01:28.888Z</time>
</trkpt>
<trkpt lat="30.9832000" lon="34.8954900">
<ele>463.689972</ele>
<time>2023-12-12T10:01:28.888Z</time>
</trkpt>
<trkpt lat="30.9831800" lon="34.8952800">
<ele>464.540009</ele>
<time>2023-12-12T10:01:28.888Z</time>
</trkpt>
<trkpt lat="30.9831100" lon="34.8949500">
<ele>467.199982</ele>
<time>2023-12-12T10:01:28.888Z</time>
</trkpt>
<trkpt lat="30.9830300" lon="34.8947800">
<ele>468.770020</ele>
<time>2023-12-12T10:01:28.888Z</time>
</trkpt>
<trkpt lat="30.9829000" lon="34.8947000">
<ele>469.250031</ele>
<time>2023-12-12T10:01:28.888Z</time>
</trkpt>
<trkpt lat="30.9825700" lon="34.8945300">
<ele>471.019989</ele>
<time>2023-12-12T10:01:28.888Z</time>
</trkpt>
<trkpt lat="30.9822200" lon="34.8941600">
<ele>471.860016</ele>
<time>2023-12-12T10:01:28.888Z</time>
</trkpt>
<trkpt lat="30.9818900" lon="34.8939000">
<ele>454.010010</ele>
<time>2023-12-12T10:01:28.888Z</time>
</trkpt>
<trkpt lat="30.9818300" lon="34.8938300">
<ele>450.299988</ele>
<time>2023-12-12T10:01:28.888Z</time>
</trkpt>
<trkpt lat="30.9816500" lon="34.8933700">
<ele>443.119995</ele>
<time>2023-12-12T10:01:28.888Z</time>
</trkpt>
<trkpt lat="30.9813800" lon="34.8930900">
<ele>448.539978</ele>
<time>2023-12-12T10:01:28.888Z</time>
</trkpt>
<trkpt lat="30.9812500" lon="34.8930600">
<ele>449.450012</ele>
<time>2023-12-12T10:01:28.888Z</time>
</trkpt>
<trkpt lat="30.9810500" lon="34.8928500">
<ele>452.309998</ele>
<time>2023-12-12T10:01:28.888Z</time>
</trkpt>
<trkpt lat="30.9806100" lon="34.8926600">
<ele>448.350006</ele>
<time>2023-12-12T10:01:28.888Z</time>
</trkpt>
<trkpt lat="30.9800000" lon="34.8922500">
<ele>453.399994</ele>
<time>2023-12-12T10:01:28.888Z</time>
</trkpt>
<trkpt lat="30.9797400" lon="34.8922500">
<ele>449.660004</ele>
<time>2023-12-12T10:01:28.888Z</time>
</trkpt>
<trkpt lat="30.9796300" lon="34.8921300">
<ele>451.109985</ele>
<time>2023-12-12T10:01:28.888Z</time>
</trkpt>
<trkpt lat="30.9793200" lon="34.8921400">
<ele>447.920013</ele>
<time>2023-12-12T10:01:28.888Z</time>
</trkpt>
<trkpt lat="30.9791000" lon="34.8921700">
<ele>447.940002</ele>
<time>2023-12-12T10:01:28.888Z</time>
</trkpt>
<trkpt lat="30.9787000" lon="34.8923100">
<ele>455.009979</ele>
<time>2023-12-12T10:01:28.888Z</time>
</trkpt>
<trkpt lat="30.9786500" lon="34.8923700">
<ele>455.089996</ele>
<time>2023-12-12T10:01:28.888Z</time>
</trkpt>
<trkpt lat="30.9785300" lon="34.8926400">
<ele>451.860016</ele>
<time>2023-12-12T10:01:28.888Z</time>
</trkpt>
<trkpt lat="30.9784500" lon="34.8927200">
<ele>451.570007</ele>
<time>2023-12-12T10:01:28.888Z</time>
</trkpt>
<trkpt lat="30.9779900" lon="34.8927900">
<ele>452.760010</ele>
<time>2023-12-12T10:01:28.888Z</time>
</trkpt>
<trkpt lat="30.9779900" lon="34.8927900">
<ele>452.760010</ele>
<time>2023-12-12T10:01:28.888Z</time>
</trkpt>
<trkpt lat="30.9779300" lon="34.8928000">
<ele>451.750000</ele>
<time>2023-12-12T10:01:28.888Z</time>
</trkpt>
<trkpt lat="30.9778400" lon="34.8928600">
<ele>450.840027</ele>
<time>2023-12-12T10:01:28.888Z</time>
</trkpt>
<trkpt lat="30.9779300" lon="34.8927900">
<ele>451.750000</ele>
<time>2023-12-12T10:01:28.888Z</time>
</trkpt>
<trkpt lat="30.9779300" lon="34.8927800">
<ele>451.740021</ele>
<time>2023-12-12T10:01:28.888Z</time>
</trkpt>
<trkpt lat="30.9779300" lon="34.8927800">
<ele>451.740021</ele>
<time>2023-12-12T10:01:28.888Z</time>
</trkpt>
<trkpt lat="30.9779200" lon="34.8927700">
<ele>451.559998</ele>
<time>2023-12-12T10:01:28.888Z</time>
</trkpt>
<trkpt lat="30.9779600" lon="34.8926800">
<ele>452.389984</ele>
<time>2023-12-12T10:01:28.888Z</time>
</trkpt>
<trkpt lat="30.9780200" lon="34.8925200">
<ele>454.050018</ele>
<time>2023-12-12T10:01:28.888Z</time>
</trkpt>
<trkpt lat="30.9780900" lon="34.8922200">
<ele>458.420013</ele>
<time>2023-12-12T10:01:28.888Z</time>
</trkpt>
<trkpt lat="30.9781000" lon="34.8921900">
<ele>459.160004</ele>
<time>2023-12-12T10:01:28.888Z</time>
</trkpt>
<trkpt lat="30.9781000" lon="34.8921900">
<ele>459.160004</ele>
<time>2023-12-12T10:01:28.888Z</time>
</trkpt>
<trkpt lat="30.9781000" lon="34.8921900">
<ele>459.160004</ele>
<time>2023-12-12T10:01:28.888Z</time>
</trkpt>
<trkpt lat="30.9781000" lon="34.8921700">
<ele>459.579987</ele>
<time>2023-12-12T10:01:28.888Z</time>
</trkpt>
<trkpt lat="30.9780900" lon="34.8921100">
<ele>460.750000</ele>
<time>2023-12-12T10:01:28.888Z</time>
</trkpt>
<trkpt lat="30.9777800" lon="34.8917400">
<ele>464.419983</ele>
<time>2023-12-12T10:01:28.888Z</time>
</trkpt>
<trkpt lat="30.9777200" lon="34.8916900">
<ele>465.549988</ele>
<time>2023-12-12T10:01:28.888Z</time>
</trkpt>
<trkpt lat="30.9776200" lon="34.8916200">
<ele>465.659973</ele>
<time>2023-12-12T10:01:28.888Z</time>
</trkpt>
<trkpt lat="30.9776200" lon="34.8916200">
<ele>465.659973</ele>
<time>2023-12-12T10:01:28.888Z</time>
</trkpt>
<trkpt lat="30.9775500" lon="34.8915800">
<ele>465.380005</ele>
<time>2023-12-12T10:01:28.888Z</time>
</trkpt>
<trkpt lat="30.9775500" lon="34.8915800">
<ele>465.380005</ele>
<time>2023-12-12T10:01:28.888Z</time>
</trkpt>
<trkpt lat="30.9775500" lon="34.8915800">
<ele>465.380005</ele>
<time>2023-12-12T10:01:28.888Z</time>
</trkpt>
<trkpt lat="30.9773100" lon="34.8913500">
<ele>465.369995</ele>
<time>2023-12-12T10:01:28.888Z</time>
</trkpt>
<trkpt lat="30.9770100" lon="34.8908800">
<ele>467.159973</ele>
<time>2023-12-12T10:01:28.888Z</time>
</trkpt>
<trkpt lat="30.9767100" lon="34.8904000">
<ele>467.429993</ele>
<time>2023-12-12T10:01:28.888Z</time>
</trkpt>
<trkpt lat="30.9766500" lon="34.8900800">
<ele>472.119995</ele>
<time>2023-12-12T10:01:28.888Z</time>
</trkpt>
<trkpt lat="30.9759100" lon="34.8896200">
<ele>473.929993</ele>
<time>2023-12-12T10:01:28.888Z</time>
</trkpt>
<trkpt lat="30.9750500" lon="34.8893900">
<ele>472.240021</ele>
<time>2023-12-12T10:01:28.888Z</time>
</trkpt>
<trkpt lat="30.9744800" lon="34.8890600">
<ele>472.970001</ele>
<time>2023-12-12T10:01:28.888Z</time>
</trkpt>
<trkpt lat="30.9743400" lon="34.8883000">
<ele>482.220032</ele>
<time>2023-12-12T10:01:28.888Z</time>
</trkpt>
<trkpt lat="30.9744100" lon="34.8887900">
<ele>472.959991</ele>
<time>2023-12-12T10:01:28.888Z</time>
</trkpt>
<trkpt lat="30.9744800" lon="34.8890500">
<ele>472.940002</ele>
<time>2023-12-12T10:01:28.888Z</time>
</trkpt>
<trkpt lat="30.9752200" lon="34.8894600">
<ele>473.459991</ele>
<time>2023-12-12T10:01:28.888Z</time>
</trkpt>
<trkpt lat="30.9757100" lon="34.8896000">
<ele>473.950012</ele>
<time>2023-12-12T10:01:28.888Z</time>
</trkpt>
<trkpt lat="30.9762200" lon="34.8898100">
<ele>470.879974</ele>
<time>2023-12-12T10:01:28.888Z</time>
</trkpt>
<trkpt lat="30.9766400" lon="34.8900700">
<ele>472.220001</ele>
<time>2023-12-12T10:01:28.888Z</time>
</trkpt>
<trkpt lat="30.9766900" lon="34.8903300">
<ele>467.790009</ele>
<time>2023-12-12T10:01:28.888Z</time>
</trkpt>
<trkpt lat="30.9769800" lon="34.8908100">
<ele>467.209991</ele>
<time>2023-12-12T10:01:28.888Z</time>
</trkpt>
<trkpt lat="30.9772600" lon="34.8912800">
<ele>465.730011</ele>
<time>2023-12-12T10:01:28.888Z</time>
</trkpt>
<trkpt lat="30.9775400" lon="34.8915700">
<ele>465.300018</ele>
<time>2023-12-12T10:01:28.888Z</time>
</trkpt>
<trkpt lat="30.9775400" lon="34.8915700">
<ele>465.300018</ele>
<time>2023-12-12T10:01:28.888Z</time>
</trkpt>
<trkpt lat="30.9775400" lon="34.8915700">
<ele>465.300018</ele>
<time>2023-12-12T10:01:28.888Z</time>
</trkpt>
<trkpt lat="30.9777200" lon="34.8916900">
<ele>465.549988</ele>
<time>2023-12-12T10:01:28.888Z</time>
</trkpt>
<trkpt lat="30.9777800" lon="34.8917400">
<ele>464.419983</ele>
<time>2023-12-12T10:01:28.888Z</time>
</trkpt>
<trkpt lat="30.9779400" lon="34.8919300">
<ele>462.529968</ele>
<time>2023-12-12T10:01:28.888Z</time>
</trkpt>
<trkpt lat="30.9779400" lon="34.8919300">
<ele>462.529968</ele>
<time>2023-12-12T10:01:28.888Z</time>
</trkpt>
<trkpt lat="30.9780900" lon="34.8921100">
<ele>460.750000</ele>
<time>2023-12-12T10:01:28.888Z</time>
</trkpt>
<trkpt lat="30.9781000" lon="34.8921700">
<ele>459.579987</ele>
<time>2023-12-12T10:01:28.888Z</time>
</trkpt>
<trkpt lat="30.9780900" lon="34.8922200">
<ele>458.420013</ele>
<time>2023-12-12T10:01:28.888Z</time>
</trkpt>
<trkpt lat="30.9780600" lon="34.8923600">
<ele>456.539978</ele>
<time>2023-12-12T10:01:28.888Z</time>
</trkpt>
<trkpt lat="30.9780600" lon="34.8923600">
<ele>456.539978</ele>
<time>2023-12-12T10:01:28.888Z</time>
</trkpt>
<trkpt lat="30.9780600" lon="34.8923600">
<ele>456.539978</ele>
<time>2023-12-12T10:01:28.888Z</time>
</trkpt>
<trkpt lat="30.9780200" lon="34.8925200">
<ele>454.050018</ele>
<time>2023-12-12T10:01:28.888Z</time>
</trkpt>
<trkpt lat="30.9779600" lon="34.8926800">
<ele>452.389984</ele>
<time>2023-12-12T10:01:28.888Z</time>
</trkpt>
<trkpt lat="30.9779100" lon="34.8928000">
<ele>451.430023</ele>
<time>2023-12-12T10:01:28.888Z</time>
</trkpt>
<trkpt lat="30.9777700" lon="34.8929300">
<ele>451.059998</ele>
<time>2023-12-12T10:01:28.888Z</time>
</trkpt>
<trkpt lat="30.9777400" lon="34.8929900">
<ele>451.339996</ele>
<time>2023-12-12T10:01:28.888Z</time>
</trkpt>
<trkpt lat="30.9777500" lon="34.8929900">
<ele>451.529968</ele>
<time>2023-12-12T10:01:28.888Z</time>
</trkpt>
<trkpt lat="30.9777500" lon="34.8929900">
<ele>451.529968</ele>
<time>2023-12-12T10:01:28.888Z</time>
</trkpt>
<trkpt lat="30.9771000" lon="34.8941600">
<ele>449.970001</ele>
<time>2023-12-12T10:01:28.888Z</time>
</trkpt>
<trkpt lat="30.9769900" lon="34.8945700">
<ele>448.480011</ele>
<time>2023-12-12T10:01:28.888Z</time>
</trkpt>
<trkpt lat="30.9765000" lon="34.8957100">
<ele>440.980011</ele>
<time>2023-12-12T10:01:28.888Z</time>
</trkpt>
<trkpt lat="30.9762400" lon="34.8959400">
<ele>447.729980</ele>
<time>2023-12-12T10:01:28.888Z</time>
</trkpt>
<trkpt lat="30.9757900" lon="34.8961900">
<ele>449.900024</ele>
<time>2023-12-12T10:01:28.888Z</time>
</trkpt>
<trkpt lat="30.9749700" lon="34.8969500">
<ele>455.059998</ele>
<time>2023-12-12T10:01:28.888Z</time>
</trkpt>
<trkpt lat="30.9746700" lon="34.8973600">
<ele>458.890015</ele>
<time>2023-12-12T10:01:28.888Z</time>
</trkpt>
<trkpt lat="30.9746300" lon="34.8977500">
<ele>465.160004</ele>
<time>2023-12-12T10:01:28.888Z</time>
</trkpt>
<trkpt lat="30.9744800" lon="34.8979500">
<ele>466.279999</ele>
<time>2023-12-12T10:01:28.888Z</time>
</trkpt>
<trkpt lat="30.9740400" lon="34.8990300">
<ele>465.380005</ele>
<time>2023-12-12T10:01:28.888Z</time>
</trkpt>
<trkpt lat="30.9704600" lon="34.8978100">
<ele>462.520020</ele>
<time>2023-12-12T10:01:28.888Z</time>
</trkpt>
<trkpt lat="30.9695100" lon="34.8979200">
<ele>462.470001</ele>
<time>2023-12-12T10:01:28.888Z</time>
</trkpt>
<trkpt lat="30.9691500" lon="34.8979100">
<ele>462.250000</ele>
<time>2023-12-12T10:01:28.888Z</time>
</trkpt>
<trkpt lat="30.9688100" lon="34.8978800">
<ele>462.069977</ele>
<time>2023-12-12T10:01:28.888Z</time>
</trkpt>
<trkpt lat="30.9687800" lon="34.8979900">
<ele>462.789978</ele>
<time>2023-12-12T10:01:28.888Z</time>
</trkpt>
<trkpt lat="30.9688100" lon="34.8981300">
<ele>464.079987</ele>
<time>2023-12-12T10:01:28.888Z</time>
</trkpt>
<trkpt lat="30.9688500" lon="34.8983300">
<ele>466.410004</ele>
<time>2023-12-12T10:01:28.888Z</time>
</trkpt>
<trkpt lat="30.9688700" lon="34.8984300">
<ele>467.750031</ele>
<time>2023-12-12T10:01:28.888Z</time>
</trkpt>
<trkpt lat="30.9690500" lon="34.8986600">
<ele>472.570007</ele>
<time>2023-12-12T10:01:28.888Z</time>
</trkpt>
<trkpt lat="30.9690800" lon="34.8990900">
<ele>475.010010</ele>
<time>2023-12-12T10:01:28.888Z</time>
</trkpt>
<trkpt lat="30.9694100" lon="34.8992200">
<ele>475.289978</ele>
<time>2023-12-12T10:01:28.888Z</time>
</trkpt>
<trkpt lat="30.9695400" lon="34.8993100">
<ele>476.029999</ele>
<time>2023-12-12T10:01:28.888Z</time>
</trkpt>
<trkpt lat="30.9696100" lon="34.8995100">
<ele>475.889984</ele>
<time>2023-12-12T10:01:28.888Z</time>
</trkpt>
<trkpt lat="30.9698200" lon="34.8997900">
<ele>470.860016</ele>
<time>2023-12-12T10:01:28.888Z</time>
</trkpt>
<trkpt lat="30.9704600" lon="34.9003000">
<ele>469.519989</ele>
<time>2023-12-12T10:01:28.888Z</time>
</trkpt>
<trkpt lat="30.9704600" lon="34.9004500">
<ele>470.960022</ele>
<time>2023-12-12T10:01:28.888Z</time>
</trkpt>
<trkpt lat="30.9702300" lon="34.9007700">
<ele>471.359985</ele>
<time>2023-12-12T10:01:28.888Z</time>
</trkpt>
<trkpt lat="30.9701000" lon="34.9010600">
<ele>471.380005</ele>
<time>2023-12-12T10:01:28.888Z</time>
</trkpt>
<trkpt lat="30.9700500" lon="34.9014100">
<ele>469.630005</ele>
<time>2023-12-12T10:01:28.888Z</time>
</trkpt>
<trkpt lat="30.9700400" lon="34.9016500">
<ele>467.419983</ele>
<time>2023-12-12T10:01:28.888Z</time>
</trkpt>
<trkpt lat="30.9699600" lon="34.9019700">
<ele>464.089996</ele>
<time>2023-12-12T10:01:28.888Z</time>
</trkpt>
<trkpt lat="30.9692800" lon="34.9029600">
<ele>469.429993</ele>
<time>2023-12-12T10:01:28.888Z</time>
</trkpt>
<trkpt lat="30.9691500" lon="34.9032300">
<ele>467.450012</ele>
<time>2023-12-12T10:01:28.888Z</time>
</trkpt>
<trkpt lat="30.9691300" lon="34.9033600">
<ele>466.949982</ele>
<time>2023-12-12T10:01:28.888Z</time>
</trkpt>
<trkpt lat="30.9688200" lon="34.9038200">
<ele>469.000000</ele>
<time>2023-12-12T10:01:28.888Z</time>
</trkpt>
<trkpt lat="30.9682200" lon="34.9043100">
<ele>472.230011</ele>
<time>2023-12-12T10:01:28.888Z</time>
</trkpt>
<trkpt lat="30.9676600" lon="34.9044700">
<ele>475.840027</ele>
<time>2023-12-12T10:01:28.888Z</time>
</trkpt>
<trkpt lat="30.9674100" lon="34.9046200">
<ele>477.110016</ele>
<time>2023-12-12T10:01:28.888Z</time>
</trkpt>
<trkpt lat="30.9669300" lon="34.9047900">
<ele>474.980011</ele>
<time>2023-12-12T10:01:28.888Z</time>
</trkpt>
<trkpt lat="30.9666600" lon="34.9049800">
<ele>481.000000</ele>
<time>2023-12-12T10:01:28.888Z</time>
</trkpt>
<trkpt lat="30.9664200" lon="34.9053600">
<ele>485.619995</ele>
<time>2023-12-12T10:01:28.888Z</time>
</trkpt>
<trkpt lat="30.9657800" lon="34.9056900">
<ele>486.279999</ele>
<time>2023-12-12T10:01:28.888Z</time>
</trkpt>
<trkpt lat="30.9656100" lon="34.9059000">
<ele>482.529999</ele>
<time>2023-12-12T10:01:28.888Z</time>
</trkpt>
<trkpt lat="30.9649300" lon="34.9064800">
<ele>480.930023</ele>
<time>2023-12-12T10:01:28.888Z</time>
</trkpt>
<trkpt lat="30.9649000" lon="34.9065900">
<ele>479.990021</ele>
<time>2023-12-12T10:01:28.888Z</time>
</trkpt>
<trkpt lat="30.9645400" lon="34.9068900">
<ele>478.639984</ele>
<time>2023-12-12T10:01:28.888Z</time>
</trkpt>
<trkpt lat="30.9644100" lon="34.9072300">
<ele>480.059998</ele>
<time>2023-12-12T10:01:28.888Z</time>
</trkpt>
<trkpt lat="30.9643800" lon="34.9074900">
<ele>477.630005</ele>
<time>2023-12-12T10:01:28.888Z</time>
</trkpt>
<trkpt lat="30.9643500" lon="34.9074900">
<ele>477.429993</ele>
<time>2023-12-12T10:01:28.888Z</time>
</trkpt>
<trkpt lat="30.9638400" lon="34.9074700">
<ele>468.600006</ele>
<time>2023-12-12T10:01:28.888Z</time>
</trkpt>
<trkpt lat="30.9634100" lon="34.9074800">
<ele>477.790009</ele>
<time>2023-12-12T10:01:28.888Z</time>
</trkpt>
<trkpt lat="30.9627100" lon="34.9070900">
<ele>482.160004</ele>
<time>2023-12-12T10:01:28.888Z</time>
</trkpt>
<trkpt lat="30.9623000" lon="34.9069700">
<ele>486.209991</ele>
<time>2023-12-12T10:01:28.888Z</time>
</trkpt>
<trkpt lat="30.9620500" lon="34.9069700">
<ele>488.910004</ele>
<time>2023-12-12T10:01:28.888Z</time>
</trkpt>
<trkpt lat="30.9619700" lon="34.9070700">
<ele>489.440002</ele>
<time>2023-12-12T10:01:28.888Z</time>
</trkpt>
<trkpt lat="30.9619500" lon="34.9073000">
<ele>489.039978</ele>
<time>2023-12-12T10:01:28.888Z</time>
</trkpt>
<trkpt lat="30.9616400" lon="34.9073100">
<ele>489.459991</ele>
<time>2023-12-12T10:01:28.888Z</time>
</trkpt>
<trkpt lat="30.9606800" lon="34.9075200">
<ele>483.279999</ele>
<time>2023-12-12T10:01:28.888Z</time>
</trkpt>
<trkpt lat="30.9601800" lon="34.9077500">
<ele>483.290009</ele>
<time>2023-12-12T10:01:28.888Z</time>
</trkpt>
<trkpt lat="30.9589000" lon="34.9080300">
<ele>500.450012</ele>
<time>2023-12-12T10:01:28.888Z</time>
</trkpt>
<trkpt lat="30.9585800" lon="34.9081700">
<ele>507.300018</ele>
<time>2023-12-12T10:01:28.888Z</time>
</trkpt>
<trkpt lat="30.9581700" lon="34.9082200">
<ele>510.330017</ele>
<time>2023-12-12T10:01:28.888Z</time>
</trkpt>
<trkpt lat="30.9578200" lon="34.9083300">
<ele>507.410004</ele>
<time>2023-12-12T10:01:28.888Z</time>
</trkpt>
<trkpt lat="30.9552800" lon="34.9083700">
<ele>539.109985</ele>
<time>2023-12-12T10:01:28.888Z</time>
</trkpt>
<trkpt lat="30.9550300" lon="34.9084800">
<ele>544.089966</ele>
<time>2023-12-12T10:01:28.888Z</time>
</trkpt>
<trkpt lat="30.9549200" lon="34.9086100">
<ele>546.119995</ele>
<time>2023-12-12T10:01:28.888Z</time>
</trkpt>
<trkpt lat="30.9544400" lon="34.9087200">
<ele>546.229980</ele>
<time>2023-12-12T10:01:28.888Z</time>
</trkpt>
<trkpt lat="30.9538500" lon="34.9086900">
<ele>552.669983</ele>
<time>2023-12-12T10:01:28.888Z</time>
</trkpt>
<trkpt lat="30.9533600" lon="34.9087600">
<ele>550.280029</ele>
<time>2023-12-12T10:01:28.888Z</time>
</trkpt>
<trkpt lat="30.9530900" lon="34.9090200">
<ele>545.559998</ele>
<time>2023-12-12T10:01:28.888Z</time>
</trkpt>
<trkpt lat="30.9526200" lon="34.9092200">
<ele>542.950012</ele>
<time>2023-12-12T10:01:28.888Z</time>
</trkpt>
<trkpt lat="30.9521300" lon="34.9092400">
<ele>532.730042</ele>
<time>2023-12-12T10:01:28.888Z</time>
</trkpt>
<trkpt lat="30.9515200" lon="34.9093000">
<ele>525.419983</ele>
<time>2023-12-12T10:01:28.888Z</time>
</trkpt>
<trkpt lat="30.9507700" lon="34.9092700">
<ele>547.079956</ele>
<time>2023-12-12T10:01:28.888Z</time>
</trkpt>
<trkpt lat="30.9506800" lon="34.9093000">
<ele>547.299988</ele>
<time>2023-12-12T10:01:28.888Z</time>
</trkpt>
<trkpt lat="30.9505700" lon="34.9093600">
<ele>546.969971</ele>
<time>2023-12-12T10:01:28.888Z</time>
</trkpt>
<trkpt lat="30.9498200" lon="34.9094200">
<ele>551.070007</ele>
<time>2023-12-12T10:01:28.888Z</time>
</trkpt>
<trkpt lat="30.9494500" lon="34.9096100">
<ele>557.520020</ele>
<time>2023-12-12T10:01:28.888Z</time>
</trkpt>
<trkpt lat="30.9492300" lon="34.9102300">
<ele>560.860046</ele>
<time>2023-12-12T10:01:28.888Z</time>
</trkpt>
<trkpt lat="30.9490300" lon="34.9104900">
<ele>561.619995</ele>
<time>2023-12-12T10:01:28.888Z</time>
</trkpt>
<trkpt lat="30.9485100" lon="34.9107600">
<ele>562.130005</ele>
<time>2023-12-12T10:01:28.888Z</time>
</trkpt>
<trkpt lat="30.9474400" lon="34.9110800">
<ele>554.619995</ele>
<time>2023-12-12T10:01:28.888Z</time>
</trkpt>
<trkpt lat="30.9471800" lon="34.9113400">
<ele>552.720032</ele>
<time>2023-12-12T10:01:28.888Z</time>
</trkpt>
<trkpt lat="30.9470500" lon="34.9113700">
<ele>553.359985</ele>
<time>2023-12-12T10:01:28.888Z</time>
</trkpt>
<trkpt lat="30.9466800" lon="34.9116500">
<ele>562.419983</ele>
<time>2023-12-12T10:01:28.888Z</time>
</trkpt>
<trkpt lat="30.9458900" lon="34.9117700">
<ele>569.710022</ele>
<time>2023-12-12T10:01:28.888Z</time>
</trkpt>
<trkpt lat="30.9455900" lon="34.9118800">
<ele>574.739990</ele>
<time>2023-12-12T10:01:28.888Z</time>
</trkpt>
<trkpt lat="30.9453800" lon="34.9119000">
<ele>577.419983</ele>
<time>2023-12-12T10:01:28.888Z</time>
</trkpt>
<trkpt lat="30.9452200" lon="34.9119000">
<ele>578.760010</ele>
<time>2023-12-12T10:01:28.888Z</time>
</trkpt>
<trkpt lat="30.9445500" lon="34.9112800">
<ele>565.719971</ele>
<time>2023-12-12T10:01:28.888Z</time>
</trkpt>
<trkpt lat="30.9443500" lon="34.9112200">
<ele>564.859985</ele>
<time>2023-12-12T10:01:28.888Z</time>
</trkpt>
<trkpt lat="30.9441700" lon="34.9113100">
<ele>566.280029</ele>
<time>2023-12-12T10:01:28.888Z</time>
</trkpt>
<trkpt lat="30.9440500" lon="34.9116200">
<ele>568.169983</ele>
<time>2023-12-12T10:01:28.888Z</time>
</trkpt>
<trkpt lat="30.9439300" lon="34.9117700">
<ele>569.739990</ele>
<time>2023-12-12T10:01:28.888Z</time>
</trkpt>
<trkpt lat="30.9438000" lon="34.9123800">
<ele>572.799988</ele>
<time>2023-12-12T10:01:28.888Z</time>
</trkpt>
<trkpt lat="30.9435900" lon="34.9126700">
<ele>568.610046</ele>
<time>2023-12-12T10:01:28.888Z</time>
</trkpt>
<trkpt lat="30.9424900" lon="34.9134300">
<ele>565.059998</ele>
<time>2023-12-12T10:01:28.888Z</time>
</trkpt>
<trkpt lat="30.9418300" lon="34.9142500">
<ele>562.049988</ele>
<time>2023-12-12T10:01:28.888Z</time>
</trkpt>
<trkpt lat="30.9412400" lon="34.9148400">
<ele>555.630005</ele>
<time>2023-12-12T10:01:28.888Z</time>
</trkpt>
<trkpt lat="30.9411700" lon="34.9150100">
<ele>554.979980</ele>
<time>2023-12-12T10:01:28.888Z</time>
</trkpt>
<trkpt lat="30.9407600" lon="34.9152700">
<ele>556.270020</ele>
<time>2023-12-12T10:01:28.888Z</time>
</trkpt>
<trkpt lat="30.9404600" lon="34.9157300">
<ele>559.299988</ele>
<time>2023-12-12T10:01:28.888Z</time>
</trkpt>
<trkpt lat="30.9399200" lon="34.9162900">
<ele>568.269958</ele>
<time>2023-12-12T10:01:28.888Z</time>
</trkpt>
<trkpt lat="30.9398800" lon="34.9164700">
<ele>569.909973</ele>
<time>2023-12-12T10:01:28.888Z</time>
</trkpt>
<trkpt lat="30.9398100" lon="34.9164800">
<ele>570.459961</ele>
<time>2023-12-12T10:01:28.888Z</time>
</trkpt>
<trkpt lat="30.9394500" lon="34.9169200">
<ele>571.989990</ele>
<time>2023-12-12T10:01:28.888Z</time>
</trkpt>
<trkpt lat="30.9384400" lon="34.9177500">
<ele>557.399963</ele>
<time>2023-12-12T10:01:28.888Z</time>
</trkpt>
<trkpt lat="30.9383400" lon="34.9179200">
<ele>558.229980</ele>
<time>2023-12-12T10:01:28.888Z</time>
</trkpt>
<trkpt lat="30.9380500" lon="34.9181800">
<ele>555.219971</ele>
<time>2023-12-12T10:01:28.888Z</time>
</trkpt>
<trkpt lat="30.9377600" lon="34.9186600">
<ele>560.390015</ele>
<time>2023-12-12T10:01:28.888Z</time>
</trkpt>
<trkpt lat="30.9375800" lon="34.9193600">
<ele>571.830017</ele>
<time>2023-12-12T10:01:28.888Z</time>
</trkpt>
<trkpt lat="30.9373500" lon="34.9197900">
<ele>572.530029</ele>
<time>2023-12-12T10:01:28.888Z</time>
</trkpt>
<trkpt lat="30.9370100" lon="34.9201300">
<ele>570.920044</ele>
<time>2023-12-12T10:01:28.888Z</time>
</trkpt>
<trkpt lat="30.9368000" lon="34.9201900">
<ele>571.040039</ele>
<time>2023-12-12T10:01:28.888Z</time>
</trkpt>
<trkpt lat="30.9362100" lon="34.9206800">
<ele>574.640015</ele>
<time>2023-12-12T10:01:28.888Z</time>
</trkpt>
<trkpt lat="30.9359600" lon="34.9210100">
<ele>577.470032</ele>
<time>2023-12-12T10:01:28.888Z</time>
</trkpt>
<trkpt lat="30.9354300" lon="34.9212600">
<ele>581.090027</ele>
<time>2023-12-12T10:01:28.888Z</time>
</trkpt>
<trkpt lat="30.9349000" lon="34.9216100">
<ele>581.619995</ele>
<time>2023-12-12T10:01:28.888Z</time>
</trkpt>
<trkpt lat="30.9346600" lon="34.9216100">
<ele>577.150024</ele>
<time>2023-12-12T10:01:28.888Z</time>
</trkpt>
<trkpt lat="30.9344900" lon="34.9217200">
<ele>577.840027</ele>
<time>2023-12-12T10:01:28.888Z</time>
</trkpt>
<trkpt lat="30.9335700" lon="34.9218000">
<ele>575.670044</ele>
<time>2023-12-12T10:01:28.888Z</time>
</trkpt>
<trkpt lat="30.9329700" lon="34.9220000">
<ele>582.090027</ele>
<time>2023-12-12T10:01:28.888Z</time>
</trkpt>
<trkpt lat="30.9325800" lon="34.9224100">
<ele>584.669983</ele>
<time>2023-12-12T10:01:28.888Z</time>
</trkpt>
<trkpt lat="30.9322500" lon="34.9224700">
<ele>577.880005</ele>
<time>2023-12-12T10:01:28.888Z</time>
</trkpt>
<trkpt lat="30.9313200" lon="34.9228700">
<ele>582.989990</ele>
<time>2023-12-12T10:01:28.888Z</time>
</trkpt>
<trkpt lat="30.9309800" lon="34.9229100">
<ele>586.739990</ele>
<time>2023-12-12T10:01:28.888Z</time>
</trkpt>
<trkpt lat="30.9307900" lon="34.9229100">
<ele>589.099976</ele>
<time>2023-12-12T10:01:28.888Z</time>
</trkpt>
<trkpt lat="30.9307100" lon="34.9230400">
<ele>591.739990</ele>
<time>2023-12-12T10:01:28.888Z</time>
</trkpt>
<trkpt lat="30.9303800" lon="34.9232600">
<ele>592.710022</ele>
<time>2023-12-12T10:01:28.888Z</time>
</trkpt>
<trkpt lat="30.9298300" lon="34.9233100">
<ele>585.989990</ele>
<time>2023-12-12T10:01:28.888Z</time>
</trkpt>
<trkpt lat="30.9298100" lon="34.9233500">
<ele>586.130005</ele>
<time>2023-12-12T10:01:28.888Z</time>
</trkpt>
<trkpt lat="30.9292000" lon="34.9237200">
<ele>586.950012</ele>
<time>2023-12-12T10:01:28.888Z</time>
</trkpt>
<trkpt lat="30.9291600" lon="34.9237800">
<ele>587.010010</ele>
<time>2023-12-12T10:01:28.888Z</time>
</trkpt>
<trkpt lat="30.9290600" lon="34.9243400">
<ele>589.469971</ele>
<time>2023-12-12T10:01:28.888Z</time>
</trkpt>
<trkpt lat="30.9289700" lon="34.9251400">
<ele>595.750000</ele>
<time>2023-12-12T10:01:28.888Z</time>
</trkpt>
<trkpt lat="30.9286900" lon="34.9255500">
<ele>589.219971</ele>
<time>2023-12-12T10:01:28.888Z</time>
</trkpt>
<trkpt lat="30.9286300" lon="34.9256900">
<ele>590.480042</ele>
<time>2023-12-12T10:01:28.888Z</time>
</trkpt>
<trkpt lat="30.9282700" lon="34.9260000">
<ele>589.520020</ele>
<time>2023-12-12T10:01:28.888Z</time>
</trkpt>
<trkpt lat="30.9282500" lon="34.9260600">
<ele>589.729980</ele>
<time>2023-12-12T10:01:28.888Z</time>
</trkpt>
<trkpt lat="30.9281000" lon="34.9281000">
<ele>606.750000</ele>
<time>2023-12-12T10:01:28.888Z</time>
</trkpt>
<trkpt lat="30.9278700" lon="34.9290400">
<ele>612.059998</ele>
<time>2023-12-12T10:01:28.888Z</time>
</trkpt>
<trkpt lat="30.9277700" lon="34.9293600">
<ele>613.659973</ele>
<time>2023-12-12T10:01:28.888Z</time>
</trkpt>
<trkpt lat="30.9277700" lon="34.9298400">
<ele>617.219971</ele>
<time>2023-12-12T10:01:28.888Z</time>
</trkpt>
<trkpt lat="30.9277300" lon="34.9306500">
<ele>624.289978</ele>
<time>2023-12-12T10:01:28.888Z</time>
</trkpt>
<trkpt lat="30.9277700" lon="34.9298400">
<ele>617.219971</ele>
<time>2023-12-12T10:01:28.888Z</time>
</trkpt>
<trkpt lat="30.9277700" lon="34.9293600">
<ele>613.659973</ele>
<time>2023-12-12T10:01:28.888Z</time>
</trkpt>
<trkpt lat="30.9278700" lon="34.9290400">
<ele>612.059998</ele>
<time>2023-12-12T10:01:28.888Z</time>
</trkpt>
<trkpt lat="30.9280900" lon="34.9281000">
<ele>606.619995</ele>
<time>2023-12-12T10:01:28.888Z</time>
</trkpt>
<trkpt lat="30.9282600" lon="34.9259800">
<ele>589.260010</ele>
<time>2023-12-12T10:01:28.888Z</time>
</trkpt>
<trkpt lat="30.9286300" lon="34.9256800">
<ele>590.260010</ele>
<time>2023-12-12T10:01:28.888Z</time>
</trkpt>
<trkpt lat="30.9286900" lon="34.9255400">
<ele>589.140015</ele>
<time>2023-12-12T10:01:28.888Z</time>
</trkpt>
<trkpt lat="30.9289700" lon="34.9251400">
<ele>595.750000</ele>
<time>2023-12-12T10:01:28.888Z</time>
</trkpt>
<trkpt lat="30.9290600" lon="34.9243400">
<ele>589.469971</ele>
<time>2023-12-12T10:01:28.888Z</time>
</trkpt>
<trkpt lat="30.9291600" lon="34.9237800">
<ele>587.010010</ele>
<time>2023-12-12T10:01:28.888Z</time>
</trkpt>
<trkpt lat="30.9292000" lon="34.9237100">
<ele>586.929993</ele>
<time>2023-12-12T10:01:28.888Z</time>
</trkpt>
<trkpt lat="30.9295300" lon="34.9234900">
<ele>586.219971</ele>
<time>2023-12-12T10:01:28.888Z</time>
</trkpt>
<trkpt lat="30.9298300" lon="34.9233100">
<ele>585.989990</ele>
<time>2023-12-12T10:01:28.888Z</time>
</trkpt>
<trkpt lat="30.9304000" lon="34.9232600">
<ele>592.969971</ele>
<time>2023-12-12T10:01:28.888Z</time>
</trkpt>
<trkpt lat="30.9306200" lon="34.9230500">
<ele>591.929993</ele>
<time>2023-12-12T10:01:28.888Z</time>
</trkpt>
<trkpt lat="30.9306800" lon="34.9228500">
<ele>588.789978</ele>
<time>2023-12-12T10:01:28.888Z</time>
</trkpt>
<trkpt lat="30.9305800" lon="34.9228000">
<ele>589.000000</ele>
<time>2023-12-12T10:01:28.888Z</time>
</trkpt>
<trkpt lat="30.9301400" lon="34.9227800">
<ele>591.440002</ele>
<time>2023-12-12T10:01:28.888Z</time>
</trkpt>
<trkpt lat="30.9295600" lon="34.9224500">
<ele>604.390015</ele>
<time>2023-12-12T10:01:28.888Z</time>
</trkpt>
<trkpt lat="30.9293200" lon="34.9224200">
<ele>607.080017</ele>
<time>2023-12-12T10:01:28.888Z</time>
</trkpt>
<trkpt lat="30.9291100" lon="34.9223100">
<ele>609.589966</ele>
<time>2023-12-12T10:01:28.888Z</time>
</trkpt>
<trkpt lat="30.9288100" lon="34.9220700">
<ele>615.169983</ele>
<time>2023-12-12T10:01:28.888Z</time>
</trkpt>
<trkpt lat="30.9284900" lon="34.9219200">
<ele>620.520020</ele>
<time>2023-12-12T10:01:28.888Z</time>
</trkpt>
<trkpt lat="30.9283500" lon="34.9213400">
<ele>628.399963</ele>
<time>2023-12-12T10:01:28.888Z</time>
</trkpt>
<trkpt lat="30.9279700" lon="34.9211300">
<ele>621.520020</ele>
<time>2023-12-12T10:01:28.888Z</time>
</trkpt>
<trkpt lat="30.9279300" lon="34.9209700">
<ele>620.330017</ele>
<time>2023-12-12T10:01:28.888Z</time>
</trkpt>
<trkpt lat="30.9279400" lon="34.9208600">
<ele>620.320007</ele>
<time>2023-12-12T10:01:28.888Z</time>
</trkpt>
<trkpt lat="30.9279300" lon="34.9202000">
<ele>620.960022</ele>
<time>2023-12-12T10:01:28.888Z</time>
</trkpt>
<trkpt lat="30.9278900" lon="34.9196700">
<ele>618.600037</ele>
<time>2023-12-12T10:01:28.888Z</time>
</trkpt>
<trkpt lat="30.9278900" lon="34.9191600">
<ele>618.070007</ele>
<time>2023-12-12T10:01:28.888Z</time>
</trkpt>
<trkpt lat="30.9278700" lon="34.9190500">
<ele>617.880005</ele>
<time>2023-12-12T10:01:28.888Z</time>
</trkpt>
<trkpt lat="30.9276200" lon="34.9188300">
<ele>611.059998</ele>
<time>2023-12-12T10:01:28.888Z</time>
</trkpt>
<trkpt lat="30.9275800" lon="34.9185100">
<ele>609.719971</ele>
<time>2023-12-12T10:01:28.888Z</time>
</trkpt>
<trkpt lat="30.9275800" lon="34.9181400">
<ele>610.860046</ele>
<time>2023-12-12T10:01:28.888Z</time>
</trkpt>
<trkpt lat="30.9275400" lon="34.9176800">
<ele>609.230042</ele>
<time>2023-12-12T10:01:28.888Z</time>
</trkpt>
<trkpt lat="30.9275500" lon="34.9170100">
<ele>599.919983</ele>
<time>2023-12-12T10:01:28.888Z</time>
</trkpt>
<trkpt lat="30.9275000" lon="34.9163400">
<ele>594.179993</ele>
<time>2023-12-12T10:01:28.888Z</time>
</trkpt>
<trkpt lat="30.9272800" lon="34.9159000">
<ele>590.719971</ele>
<time>2023-12-12T10:01:28.888Z</time>
</trkpt>
<trkpt lat="30.9271700" lon="34.9159000">
<ele>590.659973</ele>
<time>2023-12-12T10:01:28.888Z</time>
</trkpt>
<trkpt lat="30.9271200" lon="34.9162300">
<ele>589.880005</ele>
<time>2023-12-12T10:01:28.888Z</time>
</trkpt>
<trkpt lat="30.9271100" lon="34.9168900">
<ele>587.880005</ele>
<time>2023-12-12T10:01:28.888Z</time>
</trkpt>
<trkpt lat="30.9270700" lon="34.9170400">
<ele>588.160034</ele>
<time>2023-12-12T10:01:28.888Z</time>
</trkpt>
<trkpt lat="30.9267200" lon="34.9172600">
<ele>585.710022</ele>
<time>2023-12-12T10:01:28.888Z</time>
</trkpt>
<trkpt lat="30.9262600" lon="34.9172700">
<ele>595.640015</ele>
<time>2023-12-12T10:01:28.888Z</time>
</trkpt>
<trkpt lat="30.9260000" lon="34.9172000">
<ele>601.979980</ele>
<time>2023-12-12T10:01:28.888Z</time>
</trkpt>
<trkpt lat="30.9256800" lon="34.9171700">
<ele>603.640015</ele>
<time>2023-12-12T10:01:28.888Z</time>
</trkpt>
<trkpt lat="30.9255800" lon="34.9169200">
<ele>604.260010</ele>
<time>2023-12-12T10:01:28.888Z</time>
</trkpt>
<trkpt lat="30.9255400" lon="34.9169000">
<ele>604.369995</ele>
<time>2023-12-12T10:01:28.888Z</time>
</trkpt>
<trkpt lat="30.9255100" lon="34.9169000">
<ele>604.149963</ele>
<time>2023-12-12T10:01:28.888Z</time>
</trkpt>
<trkpt lat="30.9250700" lon="34.9169800">
<ele>597.450012</ele>
<time>2023-12-12T10:01:28.888Z</time>
</trkpt>
<trkpt lat="30.9249700" lon="34.9171000">
<ele>595.890015</ele>
<time>2023-12-12T10:01:28.888Z</time>
</trkpt>
<trkpt lat="30.9248700" lon="34.9173600">
<ele>596.520020</ele>
<time>2023-12-12T10:01:28.888Z</time>
</trkpt>
<trkpt lat="30.9243400" lon="34.9177100">
<ele>598.419983</ele>
<time>2023-12-12T10:01:28.888Z</time>
</trkpt>
<trkpt lat="30.9241000" lon="34.9180000">
<ele>601.630005</ele>
<time>2023-12-12T10:01:28.888Z</time>
</trkpt>
<trkpt lat="30.9239800" lon="34.9180000">
<ele>604.570007</ele>
<time>2023-12-12T10:01:28.888Z</time>
</trkpt>
<trkpt lat="30.9237200" lon="34.9180000">
<ele>610.929993</ele>
<time>2023-12-12T10:01:28.888Z</time>
</trkpt>
<trkpt lat="30.9233700" lon="34.9177200">
<ele>612.929993</ele>
<time>2023-12-12T10:01:28.888Z</time>
</trkpt>
<trkpt lat="30.9233500" lon="34.9168100">
<ele>606.119995</ele>
<time>2023-12-12T10:01:28.888Z</time>
</trkpt>
<trkpt lat="30.9231400" lon="34.9164700">
<ele>609.000000</ele>
<time>2023-12-12T10:01:28.888Z</time>
</trkpt>
<trkpt lat="30.9228500" lon="34.9164700">
<ele>612.000000</ele>
<time>2023-12-12T10:01:28.888Z</time>
</trkpt>
<trkpt lat="30.9227000" lon="34.9165400">
<ele>612.739990</ele>
<time>2023-12-12T10:01:28.888Z</time>
</trkpt>
<trkpt lat="30.9223900" lon="34.9168800">
<ele>612.700012</ele>
<time>2023-12-12T10:01:28.888Z</time>
</trkpt>
<trkpt lat="30.9223300" lon="34.9172100">
<ele>615.039978</ele>
<time>2023-12-12T10:01:28.888Z</time>
</trkpt>
<trkpt lat="30.9222400" lon="34.9173200">
<ele>615.880005</ele>
<time>2023-12-12T10:01:28.888Z</time>
</trkpt>
<trkpt lat="30.9211500" lon="34.9177200">
<ele>615.109985</ele>
<time>2023-12-12T10:01:28.888Z</time>
</trkpt>
<trkpt lat="30.9208800" lon="34.9177300">
<ele>614.309998</ele>
<time>2023-12-12T10:01:28.888Z</time>
</trkpt>
<trkpt lat="30.9207700" lon="34.9177000">
<ele>613.659973</ele>
<time>2023-12-12T10:01:28.888Z</time>
</trkpt>
<trkpt lat="30.9203500" lon="34.9177500">
<ele>609.570007</ele>
<time>2023-12-12T10:01:28.888Z</time>
</trkpt>
<trkpt lat="30.9203300" lon="34.9177800">
<ele>609.409973</ele>
<time>2023-12-12T10:01:28.888Z</time>
</trkpt>
<trkpt lat="30.9196500" lon="34.9181500">
<ele>616.359985</ele>
<time>2023-12-12T10:01:28.888Z</time>
</trkpt>
<trkpt lat="30.9195000" lon="34.9181300">
<ele>621.909973</ele>
<time>2023-12-12T10:01:28.888Z</time>
</trkpt>
<trkpt lat="30.9194700" lon="34.9181400">
<ele>623.039978</ele>
<time>2023-12-12T10:01:28.888Z</time>
</trkpt>
<trkpt lat="30.9192200" lon="34.9181200">
<ele>624.190002</ele>
<time>2023-12-12T10:01:28.888Z</time>
</trkpt>
<trkpt lat="30.9190600" lon="34.9180200">
<ele>622.190002</ele>
<time>2023-12-12T10:01:28.888Z</time>
</trkpt>
<trkpt lat="30.9186600" lon="34.9179000">
<ele>617.110046</ele>
<time>2023-12-12T10:01:28.888Z</time>
</trkpt>
<trkpt lat="30.9179900" lon="34.9173200">
<ele>635.970032</ele>
<time>2023-12-12T10:01:28.888Z</time>
</trkpt>
<trkpt lat="30.9176500" lon="34.9172000">
<ele>635.590027</ele>
<time>2023-12-12T10:01:28.888Z</time>
</trkpt>
<trkpt lat="30.9161800" lon="34.9171900">
<ele>624.070007</ele>
<time>2023-12-12T10:01:28.888Z</time>
</trkpt>
<trkpt lat="30.9159300" lon="34.9168900">
<ele>625.269958</ele>
<time>2023-12-12T10:01:28.888Z</time>
</trkpt>
<trkpt lat="30.9158000" lon="34.9165200">
<ele>629.929993</ele>
<time>2023-12-12T10:01:28.888Z</time>
</trkpt>
<trkpt lat="30.9154100" lon="34.9160300">
<ele>634.120056</ele>
<time>2023-12-12T10:01:28.888Z</time>
</trkpt>
<trkpt lat="30.9149700" lon="34.9159400">
<ele>635.179993</ele>
<time>2023-12-12T10:01:28.888Z</time>
</trkpt>
<trkpt lat="30.9146400" lon="34.9158200">
<ele>637.210022</ele>
<time>2023-12-12T10:01:28.888Z</time>
</trkpt>
<trkpt lat="30.9144300" lon="34.9157900">
<ele>639.909973</ele>
<time>2023-12-12T10:01:28.888Z</time>
</trkpt>
<trkpt lat="30.9142900" lon="34.9156600">
<ele>641.700012</ele>
<time>2023-12-12T10:01:28.888Z</time>
</trkpt>
<trkpt lat="30.9141300" lon="34.9155600">
<ele>642.080017</ele>
<time>2023-12-12T10:01:28.888Z</time>
</trkpt>
<trkpt lat="30.9140300" lon="34.9152900">
<ele>646.800049</ele>
<time>2023-12-12T10:01:28.888Z</time>
</trkpt>
<trkpt lat="30.9135500" lon="34.9152300">
<ele>648.279968</ele>
<time>2023-12-12T10:01:28.888Z</time>
</trkpt>
<trkpt lat="30.9132600" lon="34.9152400">
<ele>642.820007</ele>
<time>2023-12-12T10:01:28.888Z</time>
</trkpt>
<trkpt lat="30.9130700" lon="34.9152900">
<ele>638.270020</ele>
<time>2023-12-12T10:01:28.888Z</time>
</trkpt>
<trkpt lat="30.9125100" lon="34.9152500">
<ele>634.880005</ele>
<time>2023-12-12T10:01:28.888Z</time>
</trkpt>
<trkpt lat="30.9118600" lon="34.9153200">
<ele>636.760010</ele>
<time>2023-12-12T10:01:28.888Z</time>
</trkpt>
<trkpt lat="30.9115900" lon="34.9156000">
<ele>635.820007</ele>
<time>2023-12-12T10:01:28.888Z</time>
</trkpt>
<trkpt lat="30.9115500" lon="34.9158000">
<ele>637.120056</ele>
<time>2023-12-12T10:01:28.888Z</time>
</trkpt>
<trkpt lat="30.9109800" lon="34.9167900">
<ele>637.570007</ele>
<time>2023-12-12T10:01:28.888Z</time>
</trkpt>
<trkpt lat="30.9107500" lon="34.9169800">
<ele>637.839966</ele>
<time>2023-12-12T10:01:28.888Z</time>
</trkpt>
<trkpt lat="30.9098600" lon="34.9173600">
<ele>654.779968</ele>
<time>2023-12-12T10:01:28.888Z</time>
</trkpt>
<trkpt lat="30.9096600" lon="34.9173500">
<ele>658.919983</ele>
<time>2023-12-12T10:01:28.888Z</time>
</trkpt>
<trkpt lat="30.9094700" lon="34.9173400">
<ele>662.800049</ele>
<time>2023-12-12T10:01:28.888Z</time>
</trkpt>
<trkpt lat="30.9093600" lon="34.9173100">
<ele>664.329956</ele>
<time>2023-12-12T10:01:28.888Z</time>
</trkpt>
<trkpt lat="30.9091200" lon="34.9169800">
<ele>665.780029</ele>
<time>2023-12-12T10:01:28.888Z</time>
</trkpt>
<trkpt lat="30.9090500" lon="34.9165500">
<ele>662.869995</ele>
<time>2023-12-12T10:01:28.888Z</time>
</trkpt>
<trkpt lat="30.9090500" lon="34.9165500">
<ele>662.869995</ele>
<time>2023-12-12T10:01:28.888Z</time>
</trkpt>
<trkpt lat="30.9090300" lon="34.9165600">
<ele>662.299988</ele>
<time>2023-12-12T10:01:28.888Z</time>
</trkpt>
<trkpt lat="30.9088400" lon="34.9162700">
<ele>655.769958</ele>
<time>2023-12-12T10:01:28.888Z</time>
</trkpt>
<trkpt lat="30.9085800" lon="34.9156200">
<ele>652.589966</ele>
<time>2023-12-12T10:01:28.888Z</time>
</trkpt>
<trkpt lat="30.9081300" lon="34.9152200">
<ele>648.070007</ele>
<time>2023-12-12T10:01:28.888Z</time>
</trkpt>
<trkpt lat="30.9080000" lon="34.9151400">
<ele>646.620056</ele>
<time>2023-12-12T10:01:28.888Z</time>
</trkpt>
<trkpt lat="30.9076500" lon="34.9150800">
<ele>648.440002</ele>
<time>2023-12-12T10:01:28.888Z</time>
</trkpt>
<trkpt lat="30.9075400" lon="34.9151000">
<ele>649.500000</ele>
<time>2023-12-12T10:01:28.888Z</time>
</trkpt>
<trkpt lat="30.9073200" lon="34.9150900">
<ele>651.320007</ele>
<time>2023-12-12T10:01:28.888Z</time>
</trkpt>
<trkpt lat="30.9072700" lon="34.9150800">
<ele>651.790039</ele>
<time>2023-12-12T10:01:28.888Z</time>
</trkpt>
<trkpt lat="30.9071800" lon="34.9150900">
<ele>652.069946</ele>
<time>2023-12-12T10:01:28.888Z</time>
</trkpt>
<trkpt lat="30.9069700" lon="34.9151000">
<ele>652.320007</ele>
<time>2023-12-12T10:01:28.888Z</time>
</trkpt>
<trkpt lat="30.9068000" lon="34.9152000">
<ele>652.950012</ele>
<time>2023-12-12T10:01:28.888Z</time>
</trkpt>
<trkpt lat="30.9065800" lon="34.9153900">
<ele>655.210022</ele>
<time>2023-12-12T10:01:28.888Z</time>
</trkpt>
<trkpt lat="30.9065300" lon="34.9154200">
<ele>655.539978</ele>
<time>2023-12-12T10:01:28.888Z</time>
</trkpt>
<trkpt lat="30.9063800" lon="34.9155900">
<ele>657.979980</ele>
<time>2023-12-12T10:01:28.888Z</time>
</trkpt>
<trkpt lat="30.9062000" lon="34.9156700">
<ele>661.760010</ele>
<time>2023-12-12T10:01:28.888Z</time>
</trkpt>
<trkpt lat="30.9061300" lon="34.9156800">
<ele>662.609985</ele>
<time>2023-12-12T10:01:28.888Z</time>
</trkpt>
<trkpt lat="30.9061300" lon="34.9156800">
<ele>662.609985</ele>
<time>2023-12-12T10:01:28.888Z</time>
</trkpt>
<trkpt lat="30.9061100" lon="34.9156800">
<ele>662.800049</ele>
<time>2023-12-12T10:01:28.888Z</time>
</trkpt>
<trkpt lat="30.9059700" lon="34.9156500">
<ele>663.190002</ele>
<time>2023-12-12T10:01:28.888Z</time>
</trkpt>
<trkpt lat="30.9058100" lon="34.9155700">
<ele>663.669983</ele>
<time>2023-12-12T10:01:28.888Z</time>
</trkpt>
<trkpt lat="30.9056800" lon="34.9155500">
<ele>661.760010</ele>
<time>2023-12-12T10:01:28.888Z</time>
</trkpt>
<trkpt lat="30.9055500" lon="34.9155700">
<ele>659.930054</ele>
<time>2023-12-12T10:01:28.888Z</time>
</trkpt>
<trkpt lat="30.9054400" lon="34.9156600">
<ele>657.720032</ele>
<time>2023-12-12T10:01:28.888Z</time>
</trkpt>
<trkpt lat="30.9053600" lon="34.9157700">
<ele>656.000000</ele>
<time>2023-12-12T10:01:28.888Z</time>
</trkpt>
<trkpt lat="30.9052400" lon="34.9158700">
<ele>654.469971</ele>
<time>2023-12-12T10:01:28.888Z</time>
</trkpt>
<trkpt lat="30.9051400" lon="34.9160000">
<ele>655.509949</ele>
<time>2023-12-12T10:01:28.888Z</time>
</trkpt>
<trkpt lat="30.9049900" lon="34.9162600">
<ele>657.710022</ele>
<time>2023-12-12T10:01:28.888Z</time>
</trkpt>
<trkpt lat="30.9047100" lon="34.9165100">
<ele>661.919983</ele>
<time>2023-12-12T10:01:28.888Z</time>
</trkpt>
<trkpt lat="30.9045800" lon="34.9165900">
<ele>664.940002</ele>
<time>2023-12-12T10:01:28.888Z</time>
</trkpt>
<trkpt lat="30.9044100" lon="34.9166400">
<ele>667.680054</ele>
<time>2023-12-12T10:01:28.888Z</time>
</trkpt>
<trkpt lat="30.9042900" lon="34.9166400">
<ele>667.880005</ele>
<time>2023-12-12T10:01:28.888Z</time>
</trkpt>
<trkpt lat="30.9041500" lon="34.9166000">
<ele>667.909973</ele>
<time>2023-12-12T10:01:28.888Z</time>
</trkpt>
<trkpt lat="30.9039700" lon="34.9166000">
<ele>664.390015</ele>
<time>2023-12-12T10:01:28.888Z</time>
</trkpt>
<trkpt lat="30.9038500" lon="34.9165700">
<ele>661.840027</ele>
<time>2023-12-12T10:01:28.888Z</time>
</trkpt>
<trkpt lat="30.9036700" lon="34.9165300">
<ele>659.179993</ele>
<time>2023-12-12T10:01:28.888Z</time>
</trkpt>
<trkpt lat="30.9034000" lon="34.9165400">
<ele>655.130005</ele>
<time>2023-12-12T10:01:28.888Z</time>
</trkpt>
<trkpt lat="30.9032600" lon="34.9165100">
<ele>653.590027</ele>
<time>2023-12-12T10:01:28.888Z</time>
</trkpt>
<trkpt lat="30.9032200" lon="34.9164800">
<ele>653.319946</ele>
<time>2023-12-12T10:01:28.888Z</time>
</trkpt>
<trkpt lat="30.9030400" lon="34.9164800">
<ele>652.809998</ele>
<time>2023-12-12T10:01:28.888Z</time>
</trkpt>
<trkpt lat="30.9027100" lon="34.9163800">
<ele>662.340027</ele>
<time>2023-12-12T10:01:28.888Z</time>
</trkpt>
<trkpt lat="30.9026400" lon="34.9163800">
<ele>663.590027</ele>
<time>2023-12-12T10:01:28.888Z</time>
</trkpt>
<trkpt lat="30.9024400" lon="34.9163100">
<ele>668.150024</ele>
<time>2023-12-12T10:01:28.888Z</time>
</trkpt>
<trkpt lat="30.9020800" lon="34.9161300">
<ele>675.820007</ele>
<time>2023-12-12T10:01:28.888Z</time>
</trkpt>
<trkpt lat="30.9020100" lon="34.9160800">
<ele>676.409973</ele>
<time>2023-12-12T10:01:28.888Z</time>
</trkpt>
<trkpt lat="30.9020100" lon="34.9160900">
<ele>676.450012</ele>
<time>2023-12-12T10:01:28.888Z</time>
</trkpt>
<trkpt lat="30.9020100" lon="34.9160900">
<ele>676.450012</ele>
<time>2023-12-12T10:01:28.888Z</time>
</trkpt>
<trkpt lat="30.9020100" lon="34.9160800">
<ele>676.409973</ele>
<time>2023-12-12T10:01:28.888Z</time>
</trkpt>
<trkpt lat="30.9019400" lon="34.9159900">
<ele>676.160034</ele>
<time>2023-12-12T10:01:28.888Z</time>
</trkpt>
<trkpt lat="30.9019100" lon="34.9158900">
<ele>675.480042</ele>
<time>2023-12-12T10:01:28.888Z</time>
</trkpt>
<trkpt lat="30.9017800" lon="34.9157200">
<ele>674.589966</ele>
<time>2023-12-12T10:01:28.888Z</time>
</trkpt>
<trkpt lat="30.9017500" lon="34.9156000">
<ele>674.159973</ele>
<time>2023-12-12T10:01:28.888Z</time>
</trkpt>
<trkpt lat="30.9017000" lon="34.9154700">
<ele>674.379944</ele>
<time>2023-12-12T10:01:28.888Z</time>
</trkpt>
<trkpt lat="30.9015400" lon="34.9153000">
<ele>675.070007</ele>
<time>2023-12-12T10:01:28.888Z</time>
</trkpt>
<trkpt lat="30.9011200" lon="34.9150000">
<ele>678.059998</ele>
<time>2023-12-12T10:01:28.888Z</time>
</trkpt>
<trkpt lat="30.9010600" lon="34.9149900">
<ele>678.529968</ele>
<time>2023-12-12T10:01:28.888Z</time>
</trkpt>
<trkpt lat="30.9007000" lon="34.9148300">
<ele>681.059998</ele>
<time>2023-12-12T10:01:28.888Z</time>
</trkpt>
<trkpt lat="30.9005600" lon="34.9148100">
<ele>680.390015</ele>
<time>2023-12-12T10:01:28.888Z</time>
</trkpt>
<trkpt lat="30.9004700" lon="34.9147800">
<ele>680.149963</ele>
<time>2023-12-12T10:01:28.888Z</time>
</trkpt>
<trkpt lat="30.9003300" lon="34.9147500">
<ele>679.829956</ele>
<time>2023-12-12T10:01:28.888Z</time>
</trkpt>
<trkpt lat="30.9001700" lon="34.9146700">
<ele>679.240051</ele>
<time>2023-12-12T10:01:28.888Z</time>
</trkpt>
<trkpt lat="30.9001100" lon="34.9146800">
<ele>678.619995</ele>
<time>2023-12-12T10:01:28.888Z</time>
</trkpt>
<trkpt lat="30.8999500" lon="34.9146500">
<ele>677.459961</ele>
<time>2023-12-12T10:01:28.888Z</time>
</trkpt>
<trkpt lat="30.8998400" lon="34.9146000">
<ele>677.219971</ele>
<time>2023-12-12T10:01:28.888Z</time>
</trkpt>
<trkpt lat="30.8997300" lon="34.9145800">
<ele>676.649963</ele>
<time>2023-12-12T10:01:28.888Z</time>
</trkpt>
<trkpt lat="30.8996100" lon="34.9145400">
<ele>676.250000</ele>
<time>2023-12-12T10:01:28.888Z</time>
</trkpt>
<trkpt lat="30.8994400" lon="34.9144300">
<ele>676.210022</ele>
<time>2023-12-12T10:01:28.888Z</time>
</trkpt>
<trkpt lat="30.8992400" lon="34.9143400">
<ele>675.670044</ele>
<time>2023-12-12T10:01:28.888Z</time>
</trkpt>
<trkpt lat="30.8989600" lon="34.9142700">
<ele>674.570007</ele>
<time>2023-12-12T10:01:28.888Z</time>
</trkpt>
<trkpt lat="30.8987300" lon="34.9142600">
<ele>674.700012</ele>
<time>2023-12-12T10:01:28.888Z</time>
</trkpt>
<trkpt lat="30.8987300" lon="34.9142600">
<ele>674.700012</ele>
<time>2023-12-12T10:01:28.888Z</time>
</trkpt>
<trkpt lat="30.8987100" lon="34.9142600">
<ele>674.750061</ele>
<time>2023-12-12T10:01:28.888Z</time>
</trkpt>
<trkpt lat="30.8985100" lon="34.9142400">
<ele>674.860046</ele>
<time>2023-12-12T10:01:28.888Z</time>
</trkpt>
<trkpt lat="30.8984300" lon="34.9142000">
<ele>674.650024</ele>
<time>2023-12-12T10:01:28.888Z</time>
</trkpt>
<trkpt lat="30.8981200" lon="34.9141100">
<ele>676.200012</ele>
<time>2023-12-12T10:01:28.888Z</time>
</trkpt>
<trkpt lat="30.8977600" lon="34.9139300">
<ele>683.429993</ele>
<time>2023-12-12T10:01:28.888Z</time>
</trkpt>
<trkpt lat="30.8975300" lon="34.9137600">
<ele>684.559937</ele>
<time>2023-12-12T10:01:28.888Z</time>
</trkpt>
<trkpt lat="30.8974100" lon="34.9137100">
<ele>684.230042</ele>
<time>2023-12-12T10:01:28.888Z</time>
</trkpt>
<trkpt lat="30.8973100" lon="34.9137000">
<ele>683.749939</ele>
<time>2023-12-12T10:01:28.888Z</time>
</trkpt>
<trkpt lat="30.8971900" lon="34.9136400">
<ele>683.219971</ele>
<time>2023-12-12T10:01:28.888Z</time>
</trkpt>
<trkpt lat="30.8971300" lon="34.9135600">
<ele>682.779968</ele>
<time>2023-12-12T10:01:28.888Z</time>
</trkpt>
<trkpt lat="30.8970800" lon="34.9134800">
<ele>682.099976</ele>
<time>2023-12-12T10:01:28.888Z</time>
</trkpt>
<trkpt lat="30.8969200" lon="34.9132800">
<ele>680.180054</ele>
<time>2023-12-12T10:01:28.888Z</time>
</trkpt>
<trkpt lat="30.8968600" lon="34.9132000">
<ele>678.789978</ele>
<time>2023-12-12T10:01:28.888Z</time>
</trkpt>
<trkpt lat="30.8968200" lon="34.9130800">
<ele>677.329956</ele>
<time>2023-12-12T10:01:28.888Z</time>
</trkpt>
<trkpt lat="30.8967400" lon="34.9129700">
<ele>675.909973</ele>
<time>2023-12-12T10:01:28.888Z</time>
</trkpt>
<trkpt lat="30.8965700" lon="34.9128900">
<ele>675.440002</ele>
<time>2023-12-12T10:01:28.888Z</time>
</trkpt>
<trkpt lat="30.8965200" lon="34.9128800">
<ele>675.650024</ele>
<time>2023-12-12T10:01:28.888Z</time>
</trkpt>
<trkpt lat="30.8964500" lon="34.9128200">
<ele>675.319946</ele>
<time>2023-12-12T10:01:28.888Z</time>
</trkpt>
<trkpt lat="30.8964200" lon="34.9127700">
<ele>674.799988</ele>
<time>2023-12-12T10:01:28.888Z</time>
</trkpt>
<trkpt lat="30.8964100" lon="34.9126600">
<ele>673.649963</ele>
<time>2023-12-12T10:01:28.888Z</time>
</trkpt>
<trkpt lat="30.8963700" lon="34.9125300">
<ele>672.579956</ele>
<time>2023-12-12T10:01:28.888Z</time>
</trkpt>
<trkpt lat="30.8962700" lon="34.9123500">
<ele>673.169983</ele>
<time>2023-12-12T10:01:28.888Z</time>
</trkpt>
<trkpt lat="30.8962000" lon="34.9122900">
<ele>673.959961</ele>
<time>2023-12-12T10:01:28.888Z</time>
</trkpt>
<trkpt lat="30.8961000" lon="34.9121200">
<ele>676.090027</ele>
<time>2023-12-12T10:01:28.888Z</time>
</trkpt>
<trkpt lat="30.8958400" lon="34.9118300">
<ele>677.869995</ele>
<time>2023-12-12T10:01:28.888Z</time>
</trkpt>
<trkpt lat="30.8957600" lon="34.9117800">
<ele>678.239990</ele>
<time>2023-12-12T10:01:28.888Z</time>
</trkpt>
<trkpt lat="30.8955800" lon="34.9115400">
<ele>680.250000</ele>
<time>2023-12-12T10:01:28.888Z</time>
</trkpt>
<trkpt lat="30.8954700" lon="34.9114400">
<ele>681.330017</ele>
<time>2023-12-12T10:01:28.888Z</time>
</trkpt>
<trkpt lat="30.8954000" lon="34.9113200">
<ele>681.570007</ele>
<time>2023-12-12T10:01:28.888Z</time>
</trkpt>
<trkpt lat="30.8953500" lon="34.9111600">
<ele>681.599976</ele>
<time>2023-12-12T10:01:28.888Z</time>
</trkpt>
<trkpt lat="30.8952200" lon="34.9109900">
<ele>680.659973</ele>
<time>2023-12-12T10:01:28.888Z</time>
</trkpt>
<trkpt lat="30.8951500" lon="34.9109700">
<ele>679.649963</ele>
<time>2023-12-12T10:01:28.888Z</time>
</trkpt>
<trkpt lat="30.8950100" lon="34.9109800">
<ele>677.719971</ele>
<time>2023-12-12T10:01:28.888Z</time>
</trkpt>
<trkpt lat="30.8948700" lon="34.9109300">
<ele>675.799988</ele>
<time>2023-12-12T10:01:28.888Z</time>
</trkpt>
<trkpt lat="30.8945100" lon="34.9109600">
<ele>668.710022</ele>
<time>2023-12-12T10:01:28.888Z</time>
</trkpt>
<trkpt lat="30.8944300" lon="34.9109400">
<ele>666.109985</ele>
<time>2023-12-12T10:01:28.888Z</time>
</trkpt>
<trkpt lat="30.8941600" lon="34.9109300">
<ele>658.299988</ele>
<time>2023-12-12T10:01:28.888Z</time>
</trkpt>
<trkpt lat="30.8939900" lon="34.9108800">
<ele>657.209961</ele>
<time>2023-12-12T10:01:28.888Z</time>
</trkpt>
<trkpt lat="30.8939900" lon="34.9108700">
<ele>657.240051</ele>
<time>2023-12-12T10:01:28.888Z</time>
</trkpt>
<trkpt lat="30.8939900" lon="34.9108700">
<ele>657.240051</ele>
<time>2023-12-12T10:01:28.888Z</time>
</trkpt>
<trkpt lat="30.8939900" lon="34.9108800">
<ele>657.209961</ele>
<time>2023-12-12T10:01:28.888Z</time>
</trkpt>
<trkpt lat="30.8938800" lon="34.9108900">
<ele>656.689941</ele>
<time>2023-12-12T10:01:28.888Z</time>
</trkpt>
<trkpt lat="30.8937500" lon="34.9108300">
<ele>658.549988</ele>
<time>2023-12-12T10:01:28.888Z</time>
</trkpt>
<trkpt lat="30.8936600" lon="34.9108300">
<ele>659.500000</ele>
<time>2023-12-12T10:01:28.888Z</time>
</trkpt>
<trkpt lat="30.8935500" lon="34.9108500">
<ele>660.090027</ele>
<time>2023-12-12T10:01:28.888Z</time>
</trkpt>
<trkpt lat="30.8934400" lon="34.9109400">
<ele>659.609985</ele>
<time>2023-12-12T10:01:28.888Z</time>
</trkpt>
<trkpt lat="30.8934400" lon="34.9111100">
<ele>658.010010</ele>
<time>2023-12-12T10:01:28.888Z</time>
</trkpt>
<trkpt lat="30.8934400" lon="34.9111100">
<ele>658.010010</ele>
<time>2023-12-12T10:01:28.888Z</time>
</trkpt>
<trkpt lat="30.8934500" lon="34.9113100">
<ele>656.570007</ele>
<time>2023-12-12T10:01:28.888Z</time>
</trkpt>
<trkpt lat="30.8934700" lon="34.9114500">
<ele>655.780029</ele>
<time>2023-12-12T10:01:28.888Z</time>
</trkpt>
<trkpt lat="30.8935400" lon="34.9116200">
<ele>655.169983</ele>
<time>2023-12-12T10:01:28.888Z</time>
</trkpt>
<trkpt lat="30.8936700" lon="34.9118600">
<ele>655.020020</ele>
<time>2023-12-12T10:01:28.888Z</time>
</trkpt>
<trkpt lat="30.8937000" lon="34.9119900">
<ele>655.270020</ele>
<time>2023-12-12T10:01:28.888Z</time>
</trkpt>
<trkpt lat="30.8937000" lon="34.9121800">
<ele>655.250000</ele>
<time>2023-12-12T10:01:28.888Z</time>
</trkpt>
<trkpt lat="30.8936800" lon="34.9123100">
<ele>654.259949</ele>
<time>2023-12-12T10:01:28.888Z</time>
</trkpt>
<trkpt lat="30.8936300" lon="34.9124500">
<ele>652.539978</ele>
<time>2023-12-12T10:01:28.888Z</time>
</trkpt>
<trkpt lat="30.8935300" lon="34.9126500">
<ele>649.929993</ele>
<time>2023-12-12T10:01:28.888Z</time>
</trkpt>
<trkpt lat="30.8933700" lon="34.9130200">
<ele>640.630005</ele>
<time>2023-12-12T10:01:28.888Z</time>
</trkpt>
<trkpt lat="30.8932800" lon="34.9132400">
<ele>637.780029</ele>
<time>2023-12-12T10:01:28.888Z</time>
</trkpt>
<trkpt lat="30.8932400" lon="34.9135600">
<ele>635.640015</ele>
<time>2023-12-12T10:01:28.888Z</time>
</trkpt>
<trkpt lat="30.8932000" lon="34.9138200">
<ele>634.429993</ele>
<time>2023-12-12T10:01:28.888Z</time>
</trkpt>
<trkpt lat="30.8931900" lon="34.9140400">
<ele>633.369995</ele>
<time>2023-12-12T10:01:28.888Z</time>
</trkpt>
<trkpt lat="30.8932000" lon="34.9142000">
<ele>633.059998</ele>
<time>2023-12-12T10:01:28.888Z</time>
</trkpt>
<trkpt lat="30.8932600" lon="34.9143700">
<ele>634.219971</ele>
<time>2023-12-12T10:01:28.888Z</time>
</trkpt>
<trkpt lat="30.8933000" lon="34.9145700">
<ele>633.010010</ele>
<time>2023-12-12T10:01:28.888Z</time>
</trkpt>
<trkpt lat="30.8933000" lon="34.9147400">
<ele>630.100037</ele>
<time>2023-12-12T10:01:28.888Z</time>
</trkpt>
<trkpt lat="30.8932700" lon="34.9149700">
<ele>625.809998</ele>
<time>2023-12-12T10:01:28.888Z</time>
</trkpt>
<trkpt lat="30.8932000" lon="34.9151100">
<ele>623.010010</ele>
<time>2023-12-12T10:01:28.888Z</time>
</trkpt>
<trkpt lat="30.8931300" lon="34.9153700">
<ele>618.119995</ele>
<time>2023-12-12T10:01:28.888Z</time>
</trkpt>
<trkpt lat="30.8930200" lon="34.9155200">
<ele>615.799988</ele>
<time>2023-12-12T10:01:28.888Z</time>
</trkpt>
<trkpt lat="30.8928900" lon="34.9157900">
<ele>616.219971</ele>
<time>2023-12-12T10:01:28.888Z</time>
</trkpt>
<trkpt lat="30.8928600" lon="34.9159800">
<ele>616.840027</ele>
<time>2023-12-12T10:01:28.888Z</time>
</trkpt>
<trkpt lat="30.8928900" lon="34.9160500">
<ele>617.410034</ele>
<time>2023-12-12T10:01:28.888Z</time>
</trkpt>
<trkpt lat="30.8932000" lon="34.9161300">
<ele>617.500000</ele>
<time>2023-12-12T10:01:28.888Z</time>
</trkpt>
<trkpt lat="30.8932600" lon="34.9161900">
<ele>616.809998</ele>
<time>2023-12-12T10:01:28.888Z</time>
</trkpt>
<trkpt lat="30.8932000" lon="34.9162800">
<ele>618.000000</ele>
<time>2023-12-12T10:01:28.888Z</time>
</trkpt>
<trkpt lat="30.8930500" lon="34.9163700">
<ele>621.789978</ele>
<time>2023-12-12T10:01:28.888Z</time>
</trkpt>
<trkpt lat="30.8929500" lon="34.9165000">
<ele>621.409973</ele>
<time>2023-12-12T10:01:28.888Z</time>
</trkpt>
<trkpt lat="30.8927800" lon="34.9171400">
<ele>616.150024</ele>
<time>2023-12-12T10:01:28.888Z</time>
</trkpt>
<trkpt lat="30.8927100" lon="34.9174400">
<ele>613.820007</ele>
<time>2023-12-12T10:01:28.888Z</time>
</trkpt>
<trkpt lat="30.8927000" lon="34.9174300">
<ele>614.089966</ele>
<time>2023-12-12T10:01:28.888Z</time>
</trkpt>
<trkpt lat="30.8927000" lon="34.9174300">
<ele>614.089966</ele>
<time>2023-12-12T10:01:28.888Z</time>
</trkpt>
<trkpt lat="30.8926400" lon="34.9177800">
<ele>610.470032</ele>
<time>2023-12-12T10:01:28.888Z</time>
</trkpt>
<trkpt lat="30.8924200" lon="34.9181200">
<ele>613.529968</ele>
<time>2023-12-12T10:01:28.888Z</time>
</trkpt>
<trkpt lat="30.8923700" lon="34.9186000">
<ele>618.289978</ele>
<time>2023-12-12T10:01:28.888Z</time>
</trkpt>
<trkpt lat="30.8923700" lon="34.9189400">
<ele>618.480042</ele>
<time>2023-12-12T10:01:28.888Z</time>
</trkpt>
<trkpt lat="30.8924300" lon="34.9190500">
<ele>614.929993</ele>
<time>2023-12-12T10:01:28.888Z</time>
</trkpt>
<trkpt lat="30.8924800" lon="34.9192300">
<ele>609.239990</ele>
<time>2023-12-12T10:01:28.888Z</time>
</trkpt>
<trkpt lat="30.8925000" lon="34.9198700">
<ele>600.000000</ele>
<time>2023-12-12T10:01:28.888Z</time>
</trkpt>
<trkpt lat="30.8925100" lon="34.9205100">
<ele>601.609985</ele>
<time>2023-12-12T10:01:28.888Z</time>
</trkpt>
<trkpt lat="30.8925300" lon="34.9211500">
<ele>603.200012</ele>
<time>2023-12-12T10:01:28.888Z</time>
</trkpt>
<trkpt lat="30.8925800" lon="34.9213800">
<ele>601.270020</ele>
<time>2023-12-12T10:01:28.888Z</time>
</trkpt>
<trkpt lat="30.8929000" lon="34.9218600">
<ele>586.380005</ele>
<time>2023-12-12T10:01:28.888Z</time>
</trkpt>
<trkpt lat="30.8929200" lon="34.9221800">
<ele>585.150024</ele>
<time>2023-12-12T10:01:28.888Z</time>
</trkpt>
<trkpt lat="30.8933100" lon="34.9221000">
<ele>578.410034</ele>
<time>2023-12-12T10:01:28.888Z</time>
</trkpt>
<trkpt lat="30.8935300" lon="34.9221800">
<ele>567.299988</ele>
<time>2023-12-12T10:01:28.888Z</time>
</trkpt>
<trkpt lat="30.8935600" lon="34.9223200">
<ele>563.919983</ele>
<time>2023-12-12T10:01:28.888Z</time>
</trkpt>
<trkpt lat="30.8936000" lon="34.9223200">
<ele>562.100037</ele>
<time>2023-12-12T10:01:28.888Z</time>
</trkpt>
<trkpt lat="30.8937200" lon="34.9223300">
<ele>558.309998</ele>
<time>2023-12-12T10:01:28.888Z</time>
</trkpt>
<trkpt lat="30.8939700" lon="34.9221300">
<ele>554.770020</ele>
<time>2023-12-12T10:01:28.888Z</time>
</trkpt>
<trkpt lat="30.8940300" lon="34.9221300">
<ele>553.619995</ele>
<time>2023-12-12T10:01:28.888Z</time>
</trkpt>
<trkpt lat="30.8942200" lon="34.9226300">
<ele>544.830017</ele>
<time>2023-12-12T10:01:28.888Z</time>
</trkpt>
<trkpt lat="30.8944100" lon="34.9231300">
<ele>543.750000</ele>
<time>2023-12-12T10:01:28.888Z</time>
</trkpt>
<trkpt lat="30.8949600" lon="34.9232300">
<ele>543.179993</ele>
<time>2023-12-12T10:01:28.888Z</time>
</trkpt>
<trkpt lat="30.8951600" lon="34.9233600">
<ele>540.709961</ele>
<time>2023-12-12T10:01:28.888Z</time>
</trkpt>
<trkpt lat="30.8953500" lon="34.9236400">
<ele>537.480042</ele>
<time>2023-12-12T10:01:28.888Z</time>
</trkpt>
<trkpt lat="30.8955200" lon="34.9236400">
<ele>531.289978</ele>
<time>2023-12-12T10:01:28.888Z</time>
</trkpt>
<trkpt lat="30.8959500" lon="34.9233600">
<ele>523.019958</ele>
<time>2023-12-12T10:01:28.888Z</time>
</trkpt>
<trkpt lat="30.8961900" lon="34.9233600">
<ele>520.150024</ele>
<time>2023-12-12T10:01:28.888Z</time>
</trkpt>
<trkpt lat="30.8964800" lon="34.9235000">
<ele>518.669983</ele>
<time>2023-12-12T10:01:28.888Z</time>
</trkpt>
<trkpt lat="30.8965400" lon="34.9235700">
<ele>518.220032</ele>
<time>2023-12-12T10:01:28.888Z</time>
</trkpt>
<trkpt lat="30.8966500" lon="34.9239100">
<ele>516.960022</ele>
<time>2023-12-12T10:01:28.888Z</time>
</trkpt>
<trkpt lat="30.8967600" lon="34.9240600">
<ele>518.570007</ele>
<time>2023-12-12T10:01:28.888Z</time>
</trkpt>
<trkpt lat="30.8969800" lon="34.9241700">
<ele>522.020020</ele>
<time>2023-12-12T10:01:28.888Z</time>
</trkpt>
<trkpt lat="30.8972300" lon="34.9243600">
<ele>522.590027</ele>
<time>2023-12-12T10:01:28.888Z</time>
</trkpt>
<trkpt lat="30.8975300" lon="34.9248400">
<ele>518.159973</ele>
<time>2023-12-12T10:01:28.888Z</time>
</trkpt>
<trkpt lat="30.8979100" lon="34.9251400">
<ele>519.000000</ele>
<time>2023-12-12T10:01:28.888Z</time>
</trkpt>
<trkpt lat="30.8982800" lon="34.9254300">
<ele>516.219971</ele>
<time>2023-12-12T10:01:28.888Z</time>
</trkpt>
<trkpt lat="30.8986600" lon="34.9257300">
<ele>505.240021</ele>
<time>2023-12-12T10:01:28.888Z</time>
</trkpt>
<trkpt lat="30.8986900" lon="34.9257900">
<ele>503.790009</ele>
<time>2023-12-12T10:01:28.888Z</time>
</trkpt>
<trkpt lat="30.8987200" lon="34.9261100">
<ele>503.039978</ele>
<time>2023-12-12T10:01:28.888Z</time>
</trkpt>
<trkpt lat="30.8988500" lon="34.9263500">
<ele>501.199982</ele>
<time>2023-12-12T10:01:28.888Z</time>
</trkpt>
<trkpt lat="30.8995100" lon="34.9267800">
<ele>492.869995</ele>
<time>2023-12-12T10:01:28.888Z</time>
</trkpt>
<trkpt lat="30.8997500" lon="34.9270700">
<ele>498.119995</ele>
<time>2023-12-12T10:01:28.888Z</time>
</trkpt>
<trkpt lat="30.8998600" lon="34.9271200">
<ele>498.990021</ele>
<time>2023-12-12T10:01:28.888Z</time>
</trkpt>
<trkpt lat="30.8999200" lon="34.9272500">
<ele>498.960022</ele>
<time>2023-12-12T10:01:28.888Z</time>
</trkpt>
<trkpt lat="30.9004200" lon="34.9277500">
<ele>494.460022</ele>
<time>2023-12-12T10:01:28.888Z</time>
</trkpt>
<trkpt lat="30.9009200" lon="34.9282500">
<ele>490.740021</ele>
<time>2023-12-12T10:01:28.888Z</time>
</trkpt>
<trkpt lat="30.9011700" lon="34.9284000">
<ele>489.589996</ele>
<time>2023-12-12T10:01:28.888Z</time>
</trkpt>
<trkpt lat="30.9014400" lon="34.9287500">
<ele>490.130005</ele>
<time>2023-12-12T10:01:28.888Z</time>
</trkpt>
<trkpt lat="30.9017900" lon="34.9290200">
<ele>489.320007</ele>
<time>2023-12-12T10:01:28.888Z</time>
</trkpt>
<trkpt lat="30.9022700" lon="34.9293400">
<ele>485.459991</ele>
<time>2023-12-12T10:01:28.888Z</time>
</trkpt>
<trkpt lat="30.9026400" lon="34.9296500">
<ele>475.159973</ele>
<time>2023-12-12T10:01:28.888Z</time>
</trkpt>
<trkpt lat="30.9028900" lon="34.9298600">
<ele>471.420013</ele>
<time>2023-12-12T10:01:28.888Z</time>
</trkpt>
<trkpt lat="30.9030100" lon="34.9299900">
<ele>469.979980</ele>
<time>2023-12-12T10:01:28.888Z</time>
</trkpt>
<trkpt lat="30.9032400" lon="34.9300400">
<ele>473.549988</ele>
<time>2023-12-12T10:01:28.888Z</time>
</trkpt>
<trkpt lat="30.9035100" lon="34.9301800">
<ele>478.910004</ele>
<time>2023-12-12T10:01:28.888Z</time>
</trkpt>
<trkpt lat="30.9037700" lon="34.9302800">
<ele>483.269989</ele>
<time>2023-12-12T10:01:28.888Z</time>
</trkpt>
<trkpt lat="30.9040800" lon="34.9307200">
<ele>478.529999</ele>
<time>2023-12-12T10:01:28.888Z</time>
</trkpt>
<trkpt lat="30.9044600" lon="34.9315600">
<ele>466.220001</ele>
<time>2023-12-12T10:01:28.888Z</time>
</trkpt>
<trkpt lat="30.9048400" lon="34.9322000">
<ele>465.999969</ele>
<time>2023-12-12T10:01:28.888Z</time>
</trkpt>
<trkpt lat="30.9052100" lon="34.9328500">
<ele>465.610016</ele>
<time>2023-12-12T10:01:28.888Z</time>
</trkpt>
<trkpt lat="30.9054700" lon="34.9334100">
<ele>462.520020</ele>
<time>2023-12-12T10:01:28.888Z</time>
</trkpt>
<trkpt lat="30.9057200" lon="34.9339700">
<ele>467.130005</ele>
<time>2023-12-12T10:01:28.888Z</time>
</trkpt>
<trkpt lat="30.9061700" lon="34.9347500">
<ele>462.400024</ele>
<time>2023-12-12T10:01:28.888Z</time>
</trkpt>
<trkpt lat="30.9064600" lon="34.9352000">
<ele>457.260010</ele>
<time>2023-12-12T10:01:28.888Z</time>
</trkpt>
<trkpt lat="30.9067400" lon="34.9356400">
<ele>457.109985</ele>
<time>2023-12-12T10:01:28.888Z</time>
</trkpt>
<trkpt lat="30.9067600" lon="34.9359300">
<ele>459.369995</ele>
<time>2023-12-12T10:01:28.888Z</time>
</trkpt>
<trkpt lat="30.9070100" lon="34.9364500">
<ele>459.299988</ele>
<time>2023-12-12T10:01:28.888Z</time>
</trkpt>
<trkpt lat="30.9072700" lon="34.9369800">
<ele>453.940002</ele>
<time>2023-12-12T10:01:28.888Z</time>
</trkpt>
<trkpt lat="30.9075200" lon="34.9375000">
<ele>461.859985</ele>
<time>2023-12-12T10:01:28.888Z</time>
</trkpt>
<trkpt lat="30.9077700" lon="34.9380200">
<ele>453.390015</ele>
<time>2023-12-12T10:01:28.888Z</time>
</trkpt>
<trkpt lat="30.9080500" lon="34.9385400">
<ele>447.719971</ele>
<time>2023-12-12T10:01:28.888Z</time>
</trkpt>
<trkpt lat="30.9083400" lon="34.9389800">
<ele>448.730011</ele>
<time>2023-12-12T10:01:28.888Z</time>
</trkpt>
<trkpt lat="30.9086200" lon="34.9394100">
<ele>449.239990</ele>
<time>2023-12-12T10:01:28.888Z</time>
</trkpt>
<trkpt lat="30.9089100" lon="34.9398500">
<ele>450.200012</ele>
<time>2023-12-12T10:01:28.888Z</time>
</trkpt>
<trkpt lat="30.9092900" lon="34.9407200">
<ele>441.970001</ele>
<time>2023-12-12T10:01:28.888Z</time>
</trkpt>
<trkpt lat="30.9096000" lon="34.9412300">
<ele>435.750000</ele>
<time>2023-12-12T10:01:28.888Z</time>
</trkpt>
<trkpt lat="30.9097200" lon="34.9416000">
<ele>434.809998</ele>
<time>2023-12-12T10:01:28.888Z</time>
</trkpt>
<trkpt lat="30.9100100" lon="34.9419500">
<ele>435.089996</ele>
<time>2023-12-12T10:01:28.888Z</time>
</trkpt>
<trkpt lat="30.9102400" lon="34.9424700">
<ele>441.920013</ele>
<time>2023-12-12T10:01:28.888Z</time>
</trkpt>
<trkpt lat="30.9105200" lon="34.9429400">
<ele>439.799988</ele>
<time>2023-12-12T10:01:28.888Z</time>
</trkpt>
<trkpt lat="30.9107900" lon="34.9434100">
<ele>439.389984</ele>
<time>2023-12-12T10:01:28.888Z</time>
</trkpt>
<trkpt lat="30.9110000" lon="34.9439300">
<ele>439.450012</ele>
<time>2023-12-12T10:01:28.888Z</time>
</trkpt>
<trkpt lat="30.9112000" lon="34.9444400">
<ele>438.970001</ele>
<time>2023-12-12T10:01:28.888Z</time>
</trkpt>
<trkpt lat="30.9113500" lon="34.9450200">
<ele>438.519989</ele>
<time>2023-12-12T10:01:28.888Z</time>
</trkpt>
<trkpt lat="30.9115100" lon="34.9456100">
<ele>435.869995</ele>
<time>2023-12-12T10:01:28.888Z</time>
</trkpt>
<trkpt lat="30.9116600" lon="34.9461900">
<ele>436.670013</ele>
<time>2023-12-12T10:01:28.888Z</time>
</trkpt>
<trkpt lat="30.9118100" lon="34.9467700">
<ele>434.140015</ele>
<time>2023-12-12T10:01:28.888Z</time>
</trkpt>
<trkpt lat="30.9120100" lon="34.9473700">
<ele>431.520020</ele>
<time>2023-12-12T10:01:28.888Z</time>
</trkpt>
<trkpt lat="30.9122000" lon="34.9479700">
<ele>425.110016</ele>
<time>2023-12-12T10:01:28.888Z</time>
</trkpt>
<trkpt lat="30.9124100" lon="34.9489500">
<ele>417.559998</ele>
<time>2023-12-12T10:01:28.888Z</time>
</trkpt>
<trkpt lat="30.9126300" lon="34.9496900">
<ele>420.960022</ele>
<time>2023-12-12T10:01:28.888Z</time>
</trkpt>
<trkpt lat="30.9128500" lon="34.9504200">
<ele>425.690002</ele>
<time>2023-12-12T10:01:28.888Z</time>
</trkpt>
<trkpt lat="30.9129900" lon="34.9510300">
<ele>430.360016</ele>
<time>2023-12-12T10:01:28.888Z</time>
</trkpt>
<trkpt lat="30.9131300" lon="34.9516500">
<ele>433.269989</ele>
<time>2023-12-12T10:01:28.888Z</time>
</trkpt>
<trkpt lat="30.9132800" lon="34.9522600">
<ele>433.489990</ele>
<time>2023-12-12T10:01:28.888Z</time>
</trkpt>
<trkpt lat="30.9134200" lon="34.9528700">
<ele>435.500000</ele>
<time>2023-12-12T10:01:28.888Z</time>
</trkpt>
<trkpt lat="30.9136400" lon="34.9533300">
<ele>432.250000</ele>
<time>2023-12-12T10:01:28.888Z</time>
</trkpt>
<trkpt lat="30.9138600" lon="34.9538000">
<ele>431.860016</ele>
<time>2023-12-12T10:01:28.888Z</time>
</trkpt>
<trkpt lat="30.9140700" lon="34.9542600">
<ele>430.979980</ele>
<time>2023-12-12T10:01:28.888Z</time>
</trkpt>
<trkpt lat="30.9142900" lon="34.9547200">
<ele>429.350006</ele>
<time>2023-12-12T10:01:28.888Z</time>
</trkpt>
<trkpt lat="30.9145100" lon="34.9551900">
<ele>425.820007</ele>
<time>2023-12-12T10:01:28.888Z</time>
</trkpt>
<trkpt lat="30.9147300" lon="34.9556500">
<ele>426.300018</ele>
<time>2023-12-12T10:01:28.888Z</time>
</trkpt>
<trkpt lat="30.9147900" lon="34.9559400">
<ele>427.190002</ele>
<time>2023-12-12T10:01:28.888Z</time>
</trkpt>
<trkpt lat="30.9150700" lon="34.9564200">
<ele>426.220001</ele>
<time>2023-12-12T10:01:28.888Z</time>
</trkpt>
<trkpt lat="30.9153500" lon="34.9569000">
<ele>425.519989</ele>
<time>2023-12-12T10:01:28.888Z</time>
</trkpt>
<trkpt lat="30.9154200" lon="34.9572700">
<ele>427.790009</ele>
<time>2023-12-12T10:01:28.888Z</time>
</trkpt>
<trkpt lat="30.9154300" lon="34.9575000">
<ele>429.359985</ele>
<time>2023-12-12T10:01:28.888Z</time>
</trkpt>
<trkpt lat="30.9154600" lon="34.9576300">
<ele>430.570007</ele>
<time>2023-12-12T10:01:28.888Z</time>
</trkpt>
<trkpt lat="30.9157500" lon="34.9578000">
<ele>435.479980</ele>
<time>2023-12-12T10:01:28.888Z</time>
</trkpt>
<trkpt lat="30.9160000" lon="34.9582500">
<ele>440.119995</ele>
<time>2023-12-12T10:01:28.888Z</time>
</trkpt>
<trkpt lat="30.9162400" lon="34.9586900">
<ele>437.199982</ele>
<time>2023-12-12T10:01:28.888Z</time>
</trkpt>
<trkpt lat="30.9162800" lon="34.9589700">
<ele>433.779999</ele>
<time>2023-12-12T10:01:28.888Z</time>
</trkpt>
<trkpt lat="30.9162900" lon="34.9592400">
<ele>430.139984</ele>
<time>2023-12-12T10:01:28.888Z</time>
</trkpt>
<trkpt lat="30.9163300" lon="34.9594300">
<ele>428.519989</ele>
<time>2023-12-12T10:01:28.888Z</time>
</trkpt>
<trkpt lat="30.9165300" lon="34.9597400">
<ele>427.429993</ele>
<time>2023-12-12T10:01:28.888Z</time>
</trkpt>
<trkpt lat="30.9167400" lon="34.9602500">
<ele>428.029999</ele>
<time>2023-12-12T10:01:28.888Z</time>
</trkpt>
<trkpt lat="30.9169600" lon="34.9607600">
<ele>429.540009</ele>
<time>2023-12-12T10:01:28.888Z</time>
</trkpt>
<trkpt lat="30.9171700" lon="34.9612800">
<ele>426.459991</ele>
<time>2023-12-12T10:01:28.888Z</time>
</trkpt>
<trkpt lat="30.9173800" lon="34.9617900">
<ele>424.190002</ele>
<time>2023-12-12T10:01:28.888Z</time>
</trkpt>
<trkpt lat="30.9174900" lon="34.9623200">
<ele>419.619995</ele>
<time>2023-12-12T10:01:28.888Z</time>
</trkpt>
<trkpt lat="30.9175800" lon="34.9630100">
<ele>418.130005</ele>
<time>2023-12-12T10:01:28.888Z</time>
</trkpt>
<trkpt lat="30.9176700" lon="34.9636900">
<ele>423.160004</ele>
<time>2023-12-12T10:01:28.888Z</time>
</trkpt>
<trkpt lat="30.9177600" lon="34.9643800">
<ele>426.319977</ele>
<time>2023-12-12T10:01:28.888Z</time>
</trkpt>
<trkpt lat="30.9178800" lon="34.9647000">
<ele>427.059998</ele>
<time>2023-12-12T10:01:28.888Z</time>
</trkpt>
<trkpt lat="30.9182400" lon="34.9653200">
<ele>420.329987</ele>
<time>2023-12-12T10:01:28.888Z</time>
</trkpt>
<trkpt lat="30.9185200" lon="34.9659600">
<ele>425.739990</ele>
<time>2023-12-12T10:01:28.888Z</time>
</trkpt>
<trkpt lat="30.9188400" lon="34.9667400">
<ele>426.820007</ele>
<time>2023-12-12T10:01:28.888Z</time>
</trkpt>
<trkpt lat="30.9190800" lon="34.9673700">
<ele>427.369995</ele>
<time>2023-12-12T10:01:28.888Z</time>
</trkpt>
<trkpt lat="30.9193200" lon="34.9680100">
<ele>426.990021</ele>
<time>2023-12-12T10:01:28.888Z</time>
</trkpt>
<trkpt lat="30.9195600" lon="34.9686400">
<ele>417.690002</ele>
<time>2023-12-12T10:01:28.888Z</time>
</trkpt>
<trkpt lat="30.9196200" lon="34.9694400">
<ele>412.610016</ele>
<time>2023-12-12T10:01:28.888Z</time>
</trkpt>
<trkpt lat="30.9198400" lon="34.9699200">
<ele>411.859985</ele>
<time>2023-12-12T10:01:28.888Z</time>
</trkpt>
<trkpt lat="30.9200000" lon="34.9704700">
<ele>412.380005</ele>
<time>2023-12-12T10:01:28.888Z</time>
</trkpt>
<trkpt lat="30.9201500" lon="34.9710100">
<ele>411.330017</ele>
<time>2023-12-12T10:01:28.888Z</time>
</trkpt>
<trkpt lat="30.9202700" lon="34.9711500">
<ele>407.420013</ele>
<time>2023-12-12T10:01:28.888Z</time>
</trkpt>
<trkpt lat="30.9205300" lon="34.9712700">
<ele>399.949982</ele>
<time>2023-12-12T10:01:28.888Z</time>
</trkpt>
<trkpt lat="30.9210000" lon="34.9717900">
<ele>399.219971</ele>
<time>2023-12-12T10:01:28.888Z</time>
</trkpt>
<trkpt lat="30.9214600" lon="34.9723100">
<ele>396.989990</ele>
<time>2023-12-12T10:01:28.888Z</time>
</trkpt>
<trkpt lat="30.9216400" lon="34.9729200">
<ele>395.369995</ele>
<time>2023-12-12T10:01:28.888Z</time>
</trkpt>
<trkpt lat="30.9219100" lon="34.9733900">
<ele>397.119995</ele>
<time>2023-12-12T10:01:28.888Z</time>
</trkpt>
<trkpt lat="30.9223200" lon="34.9738000">
<ele>394.649994</ele>
<time>2023-12-12T10:01:28.888Z</time>
</trkpt>
<trkpt lat="30.9228600" lon="34.9739200">
<ele>395.809998</ele>
<time>2023-12-12T10:01:28.888Z</time>
</trkpt>
<trkpt lat="30.9233300" lon="34.9741800">
<ele>398.010010</ele>
<time>2023-12-12T10:01:28.888Z</time>
</trkpt>
<trkpt lat="30.9237900" lon="34.9744300">
<ele>394.590027</ele>
<time>2023-12-12T10:01:28.888Z</time>
</trkpt>
<trkpt lat="30.9240900" lon="34.9747700">
<ele>392.929993</ele>
<time>2023-12-12T10:01:28.888Z</time>
</trkpt>
<trkpt lat="30.9247900" lon="34.9752700">
<ele>393.080017</ele>
<time>2023-12-12T10:01:28.888Z</time>
</trkpt>
<trkpt lat="30.9252900" lon="34.9754900">
<ele>387.559998</ele>
<time>2023-12-12T10:01:28.888Z</time>
</trkpt>
<trkpt lat="30.9256700" lon="34.9758000">
<ele>381.660004</ele>
<time>2023-12-12T10:01:28.888Z</time>
</trkpt>
<trkpt lat="30.9262800" lon="34.9760900">
<ele>386.540009</ele>
<time>2023-12-12T10:01:28.888Z</time>
</trkpt>
<trkpt lat="30.9268200" lon="34.9764300">
<ele>381.549988</ele>
<time>2023-12-12T10:01:28.888Z</time>
</trkpt>
<trkpt lat="30.9273600" lon="34.9767800">
<ele>379.410004</ele>
<time>2023-12-12T10:01:28.888Z</time>
</trkpt>
<trkpt lat="30.9276300" lon="34.9770000">
<ele>379.070007</ele>
<time>2023-12-12T10:01:28.888Z</time>
</trkpt>
<trkpt lat="30.9282500" lon="34.9776500">
<ele>381.799988</ele>
<time>2023-12-12T10:01:28.888Z</time>
</trkpt>
<trkpt lat="30.9286500" lon="34.9779400">
<ele>381.299988</ele>
<time>2023-12-12T10:01:28.888Z</time>
</trkpt>
<trkpt lat="30.9290500" lon="34.9782400">
<ele>380.690002</ele>
<time>2023-12-12T10:01:28.888Z</time>
</trkpt>
<trkpt lat="30.9294500" lon="34.9785300">
<ele>382.479980</ele>
<time>2023-12-12T10:01:28.888Z</time>
</trkpt>
<trkpt lat="30.9298500" lon="34.9788200">
<ele>373.820007</ele>
<time>2023-12-12T10:01:28.888Z</time>
</trkpt>
<trkpt lat="30.9300100" lon="34.9788900">
<ele>372.140015</ele>
<time>2023-12-12T10:01:28.888Z</time>
</trkpt>
<trkpt lat="30.9307100" lon="34.9789800">
<ele>376.709991</ele>
<time>2023-12-12T10:01:28.888Z</time>
</trkpt>
<trkpt lat="30.9311600" lon="34.9791500">
<ele>373.310028</ele>
<time>2023-12-12T10:01:28.888Z</time>
</trkpt>
<trkpt lat="30.9316200" lon="34.9793200">
<ele>371.869995</ele>
<time>2023-12-12T10:01:28.888Z</time>
</trkpt>
<trkpt lat="30.9320700" lon="34.9794900">
<ele>374.149994</ele>
<time>2023-12-12T10:01:28.888Z</time>
</trkpt>
<trkpt lat="30.9325600" lon="34.9798600">
<ele>373.239990</ele>
<time>2023-12-12T10:01:28.888Z</time>
</trkpt>
<trkpt lat="30.9330400" lon="34.9802300">
<ele>366.899994</ele>
<time>2023-12-12T10:01:28.888Z</time>
</trkpt>
<trkpt lat="30.9336100" lon="34.9805500">
<ele>367.979980</ele>
<time>2023-12-12T10:01:28.888Z</time>
</trkpt>
<trkpt lat="30.9341800" lon="34.9808800">
<ele>367.730011</ele>
<time>2023-12-12T10:01:28.888Z</time>
</trkpt>
<trkpt lat="30.9347900" lon="34.9814500">
<ele>369.089996</ele>
<time>2023-12-12T10:01:28.888Z</time>
</trkpt>
<trkpt lat="30.9353300" lon="34.9817000">
<ele>378.679993</ele>
<time>2023-12-12T10:01:28.888Z</time>
</trkpt>
<trkpt lat="30.9358700" lon="34.9819500">
<ele>368.550018</ele>
<time>2023-12-12T10:01:28.888Z</time>
</trkpt>
<trkpt lat="30.9366100" lon="34.9824700">
<ele>366.000000</ele>
<time>2023-12-12T10:01:28.888Z</time>
</trkpt>
<trkpt lat="30.9371000" lon="34.9826000">
<ele>359.079987</ele>
<time>2023-12-12T10:01:28.888Z</time>
</trkpt>
<trkpt lat="30.9375900" lon="34.9827200">
<ele>359.050018</ele>
<time>2023-12-12T10:01:28.888Z</time>
</trkpt>
<trkpt lat="30.9380600" lon="34.9827500">
<ele>360.970001</ele>
<time>2023-12-12T10:01:28.888Z</time>
</trkpt>
<trkpt lat="30.9384900" lon="34.9829800">
<ele>360.130005</ele>
<time>2023-12-12T10:01:28.888Z</time>
</trkpt>
<trkpt lat="30.9389300" lon="34.9832100">
<ele>360.029999</ele>
<time>2023-12-12T10:01:28.888Z</time>
</trkpt>
<trkpt lat="30.9393600" lon="34.9834400">
<ele>354.119995</ele>
<time>2023-12-12T10:01:28.888Z</time>
</trkpt>
<trkpt lat="30.9398000" lon="34.9836700">
<ele>350.589996</ele>
<time>2023-12-12T10:01:28.888Z</time>
</trkpt>
<trkpt lat="30.9402300" lon="34.9839000">
<ele>352.540009</ele>
<time>2023-12-12T10:01:28.888Z</time>
</trkpt>
<trkpt lat="30.9406100" lon="34.9842200">
<ele>349.869995</ele>
<time>2023-12-12T10:01:28.888Z</time>
</trkpt>
<trkpt lat="30.9409800" lon="34.9845300">
<ele>345.089996</ele>
<time>2023-12-12T10:01:28.888Z</time>
</trkpt>
<trkpt lat="30.9412000" lon="34.9852300">
<ele>341.479980</ele>
<time>2023-12-12T10:01:28.888Z</time>
</trkpt>
<trkpt lat="30.9417900" lon="34.9856100">
<ele>340.850006</ele>
<time>2023-12-12T10:01:28.888Z</time>
</trkpt>
<trkpt lat="30.9422900" lon="34.9854000">
<ele>338.720001</ele>
<time>2023-12-12T10:01:28.888Z</time>
</trkpt>
<trkpt lat="30.9428000" lon="34.9851900">
<ele>338.369995</ele>
<time>2023-12-12T10:01:28.888Z</time>
</trkpt>
<trkpt lat="30.9433000" lon="34.9849800">
<ele>339.950012</ele>
<time>2023-12-12T10:01:28.888Z</time>
</trkpt>
<trkpt lat="30.9441400" lon="34.9848400">
<ele>337.310028</ele>
<time>2023-12-12T10:01:28.888Z</time>
</trkpt>
<trkpt lat="30.9447300" lon="34.9848100">
<ele>335.130005</ele>
<time>2023-12-12T10:01:28.888Z</time>
</trkpt>
<trkpt lat="30.9453200" lon="34.9847800">
<ele>339.480011</ele>
<time>2023-12-12T10:01:28.888Z</time>
</trkpt>
<trkpt lat="30.9457700" lon="34.9847400">
<ele>343.560028</ele>
<time>2023-12-12T10:01:28.888Z</time>
</trkpt>
<trkpt lat="30.9462300" lon="34.9846900">
<ele>340.640015</ele>
<time>2023-12-12T10:01:28.888Z</time>
</trkpt>
<trkpt lat="30.9463500" lon="34.9846300">
<ele>339.559998</ele>
<time>2023-12-12T10:01:28.888Z</time>
</trkpt>
<trkpt lat="30.9466800" lon="34.9845600">
<ele>339.809998</ele>
<time>2023-12-12T10:01:28.888Z</time>
</trkpt>
<trkpt lat="30.9469200" lon="34.9843600">
<ele>339.979980</ele>
<time>2023-12-12T10:01:28.888Z</time>
</trkpt>
<trkpt lat="30.9473700" lon="34.9836500">
<ele>347.399994</ele>
<time>2023-12-12T10:01:28.888Z</time>
</trkpt>
<trkpt lat="30.9478800" lon="34.9830800">
<ele>351.420013</ele>
<time>2023-12-12T10:01:28.888Z</time>
</trkpt>
<trkpt lat="30.9481000" lon="34.9829800">
<ele>353.390015</ele>
<time>2023-12-12T10:01:28.888Z</time>
</trkpt>
<trkpt lat="30.9481500" lon="34.9827400">
<ele>353.820007</ele>
<time>2023-12-12T10:01:28.888Z</time>
</trkpt>
<trkpt lat="30.9482400" lon="34.9825400">
<ele>352.580017</ele>
<time>2023-12-12T10:01:28.888Z</time>
</trkpt>
<trkpt lat="30.9486700" lon="34.9820700">
<ele>352.479980</ele>
<time>2023-12-12T10:01:28.888Z</time>
</trkpt>
<trkpt lat="30.9491400" lon="34.9817000">
<ele>360.689972</ele>
<time>2023-12-12T10:01:28.888Z</time>
</trkpt>
<trkpt lat="30.9495200" lon="34.9815000">
<ele>363.019989</ele>
<time>2023-12-12T10:01:28.888Z</time>
</trkpt>
<trkpt lat="30.9499200" lon="34.9813600">
<ele>364.859985</ele>
<time>2023-12-12T10:01:28.888Z</time>
</trkpt>
<trkpt lat="30.9504200" lon="34.9811400">
<ele>357.919983</ele>
<time>2023-12-12T10:01:28.888Z</time>
</trkpt>
<trkpt lat="30.9509200" lon="34.9809100">
<ele>362.850006</ele>
<time>2023-12-12T10:01:28.888Z</time>
</trkpt>
<trkpt lat="30.9510400" lon="34.9809000">
<ele>364.049988</ele>
<time>2023-12-12T10:01:28.888Z</time>
</trkpt>
<trkpt lat="30.9513300" lon="34.9809000">
<ele>366.369995</ele>
<time>2023-12-12T10:01:28.888Z</time>
</trkpt>
<trkpt lat="30.9518100" lon="34.9809700">
<ele>364.940002</ele>
<time>2023-12-12T10:01:28.888Z</time>
</trkpt>
<trkpt lat="30.9522800" lon="34.9810400">
<ele>356.260010</ele>
<time>2023-12-12T10:01:28.888Z</time>
</trkpt>
<trkpt lat="30.9527600" lon="34.9810700">
<ele>349.330017</ele>
<time>2023-12-12T10:01:28.888Z</time>
</trkpt>
<trkpt lat="30.9532300" lon="34.9811100">
<ele>351.650024</ele>
<time>2023-12-12T10:01:28.888Z</time>
</trkpt>
<trkpt lat="30.9537100" lon="34.9811400">
<ele>360.910004</ele>
<time>2023-12-12T10:01:28.888Z</time>
</trkpt>
<trkpt lat="30.9541300" lon="34.9812100">
<ele>366.290009</ele>
<time>2023-12-12T10:01:28.888Z</time>
</trkpt>
<trkpt lat="30.9546600" lon="34.9812300">
<ele>377.599976</ele>
<time>2023-12-12T10:01:28.888Z</time>
</trkpt>
<trkpt lat="30.9551900" lon="34.9812600">
<ele>380.779999</ele>
<time>2023-12-12T10:01:28.888Z</time>
</trkpt>
<trkpt lat="30.9557200" lon="34.9812800">
<ele>377.989990</ele>
<time>2023-12-12T10:01:28.888Z</time>
</trkpt>
<trkpt lat="30.9563100" lon="34.9813800">
<ele>372.830017</ele>
<time>2023-12-12T10:01:28.888Z</time>
</trkpt>
<trkpt lat="30.9567700" lon="34.9814100">
<ele>379.660004</ele>
<time>2023-12-12T10:01:28.888Z</time>
</trkpt>
<trkpt lat="30.9572300" lon="34.9814400">
<ele>384.679993</ele>
<time>2023-12-12T10:01:28.888Z</time>
</trkpt>
<trkpt lat="30.9579500" lon="34.9815300">
<ele>387.180023</ele>
<time>2023-12-12T10:01:28.888Z</time>
</trkpt>
<trkpt lat="30.9582600" lon="34.9816000">
<ele>391.029999</ele>
<time>2023-12-12T10:01:28.888Z</time>
</trkpt>
<trkpt lat="30.9590000" lon="34.9816800">
<ele>403.969971</ele>
<time>2023-12-12T10:01:28.888Z</time>
</trkpt>
<trkpt lat="30.9595100" lon="34.9821100">
<ele>410.600006</ele>
<time>2023-12-12T10:01:28.888Z</time>
</trkpt>
<trkpt lat="30.9598200" lon="34.9825500">
<ele>412.700012</ele>
<time>2023-12-12T10:01:28.888Z</time>
</trkpt>
<trkpt lat="30.9601200" lon="34.9829800">
<ele>414.369995</ele>
<time>2023-12-12T10:01:28.888Z</time>
</trkpt>
<trkpt lat="30.9605000" lon="34.9833600">
<ele>410.869995</ele>
<time>2023-12-12T10:01:28.888Z</time>
</trkpt>
<trkpt lat="30.9610500" lon="34.9837300">
<ele>417.529999</ele>
<time>2023-12-12T10:01:28.888Z</time>
</trkpt>
<trkpt lat="30.9616400" lon="34.9829900">
<ele>426.070007</ele>
<time>2023-12-12T10:01:28.888Z</time>
</trkpt>
<trkpt lat="30.9621000" lon="34.9825000">
<ele>422.119995</ele>
<time>2023-12-12T10:01:28.888Z</time>
</trkpt>
<trkpt lat="30.9624200" lon="34.9822600">
<ele>424.440002</ele>
<time>2023-12-12T10:01:28.888Z</time>
</trkpt>
<trkpt lat="30.9630700" lon="34.9819200">
<ele>429.909973</ele>
<time>2023-12-12T10:01:28.888Z</time>
</trkpt>
<trkpt lat="30.9635200" lon="34.9817400">
<ele>428.730011</ele>
<time>2023-12-12T10:01:28.888Z</time>
</trkpt>
<trkpt lat="30.9639600" lon="34.9815600">
<ele>429.260010</ele>
<time>2023-12-12T10:01:28.888Z</time>
</trkpt>
<trkpt lat="30.9644000" lon="34.9814300">
<ele>435.959991</ele>
<time>2023-12-12T10:01:28.888Z</time>
</trkpt>
<trkpt lat="30.9648400" lon="34.9812900">
<ele>439.580017</ele>
<time>2023-12-12T10:01:28.888Z</time>
</trkpt>
<trkpt lat="30.9652800" lon="34.9811600">
<ele>439.429993</ele>
<time>2023-12-12T10:01:28.888Z</time>
</trkpt>
<trkpt lat="30.9657100" lon="34.9810200">
<ele>452.299988</ele>
<time>2023-12-12T10:01:28.888Z</time>
</trkpt>
<trkpt lat="30.9661500" lon="34.9808900">
<ele>456.450012</ele>
<time>2023-12-12T10:01:28.888Z</time>
</trkpt>
<trkpt lat="30.9665900" lon="34.9807500">
<ele>456.839996</ele>
<time>2023-12-12T10:01:28.888Z</time>
</trkpt>
<trkpt lat="30.9670300" lon="34.9806200">
<ele>462.709991</ele>
<time>2023-12-12T10:01:28.888Z</time>
</trkpt>
<trkpt lat="30.9672100" lon="34.9805300">
<ele>466.339996</ele>
<time>2023-12-12T10:01:28.888Z</time>
</trkpt>
<trkpt lat="30.9676700" lon="34.9800300">
<ele>471.119995</ele>
<time>2023-12-12T10:01:28.888Z</time>
</trkpt>
<trkpt lat="30.9681200" lon="34.9796800">
<ele>482.059998</ele>
<time>2023-12-12T10:01:28.888Z</time>
</trkpt>
<trkpt lat="30.9685500" lon="34.9794200">
<ele>492.100006</ele>
<time>2023-12-12T10:01:28.888Z</time>
</trkpt>
<trkpt lat="30.9685900" lon="34.9792000">
<ele>491.450012</ele>
<time>2023-12-12T10:01:28.888Z</time>
</trkpt>
<trkpt lat="30.9686200" lon="34.9786800">
<ele>493.430023</ele>
<time>2023-12-12T10:01:28.888Z</time>
</trkpt>
<trkpt lat="30.9688600" lon="34.9786900">
<ele>504.770020</ele>
<time>2023-12-12T10:01:28.888Z</time>
</trkpt>
<trkpt lat="30.9689000" lon="34.9787800">
<ele>505.540009</ele>
<time>2023-12-12T10:01:28.888Z</time>
</trkpt>
<trkpt lat="30.9689300" lon="34.9790300">
<ele>505.839996</ele>
<time>2023-12-12T10:01:28.888Z</time>
</trkpt>
<trkpt lat="30.9689300" lon="34.9792100">
<ele>506.159973</ele>
<time>2023-12-12T10:01:28.888Z</time>
</trkpt>
<trkpt lat="30.9687000" lon="34.9798000">
<ele>502.489990</ele>
<time>2023-12-12T10:01:28.888Z</time>
</trkpt>
<trkpt lat="30.9686800" lon="34.9799400">
<ele>503.260010</ele>
<time>2023-12-12T10:01:28.888Z</time>
</trkpt>
<trkpt lat="30.9686800" lon="34.9803900">
<ele>496.059998</ele>
<time>2023-12-12T10:01:28.888Z</time>
</trkpt>
<trkpt lat="30.9688000" lon="34.9804000">
<ele>499.200012</ele>
<time>2023-12-12T10:01:28.888Z</time>
</trkpt>
<trkpt lat="30.9688900" lon="34.9803900">
<ele>501.839996</ele>
<time>2023-12-12T10:01:28.888Z</time>
</trkpt>
<trkpt lat="30.9689500" lon="34.9803200">
<ele>505.350006</ele>
<time>2023-12-12T10:01:28.888Z</time>
</trkpt>
<trkpt lat="30.9690200" lon="34.9799000">
<ele>509.299988</ele>
<time>2023-12-12T10:01:28.888Z</time>
</trkpt>
<trkpt lat="30.9693200" lon="34.9793800">
<ele>519.540039</ele>
<time>2023-12-12T10:01:28.888Z</time>
</trkpt>
<trkpt lat="30.9693300" lon="34.9791100">
<ele>521.440002</ele>
<time>2023-12-12T10:01:28.888Z</time>
</trkpt>
<trkpt lat="30.9693200" lon="34.9784000">
<ele>528.390015</ele>
<time>2023-12-12T10:01:28.888Z</time>
</trkpt>
<trkpt lat="30.9692700" lon="34.9781800">
<ele>529.650024</ele>
<time>2023-12-12T10:01:28.888Z</time>
</trkpt>
<trkpt lat="30.9689500" lon="34.9778200">
<ele>525.729980</ele>
<time>2023-12-12T10:01:28.888Z</time>
</trkpt>
<trkpt lat="30.9689500" lon="34.9774100">
<ele>531.729980</ele>
<time>2023-12-12T10:01:28.888Z</time>
</trkpt>
<trkpt lat="30.9689700" lon="34.9773000">
<ele>532.119995</ele>
<time>2023-12-12T10:01:28.888Z</time>
</trkpt>
<trkpt lat="30.9695600" lon="34.9767900">
<ele>553.710022</ele>
<time>2023-12-12T10:01:28.888Z</time>
</trkpt>
<trkpt lat="30.9695900" lon="34.9767400">
<ele>554.859985</ele>
<time>2023-12-12T10:01:28.888Z</time>
</trkpt>
<trkpt lat="30.9696300" lon="34.9761400">
<ele>550.760010</ele>
<time>2023-12-12T10:01:28.888Z</time>
</trkpt>
<trkpt lat="30.9697000" lon="34.9761200">
<ele>553.250000</ele>
<time>2023-12-12T10:01:28.888Z</time>
</trkpt>
<trkpt lat="30.9701800" lon="34.9761000">
<ele>565.559998</ele>
<time>2023-12-12T10:01:28.888Z</time>
</trkpt>
<trkpt lat="30.9703100" lon="34.9760000">
<ele>569.549988</ele>
<time>2023-12-12T10:01:28.888Z</time>
</trkpt>
<trkpt lat="30.9704400" lon="34.9756700">
<ele>570.330017</ele>
<time>2023-12-12T10:01:28.888Z</time>
</trkpt>
<trkpt lat="30.9706000" lon="34.9750500">
<ele>568.570007</ele>
<time>2023-12-12T10:01:28.888Z</time>
</trkpt>
<trkpt lat="30.9707500" lon="34.9744300">
<ele>561.469971</ele>
<time>2023-12-12T10:01:28.888Z</time>
</trkpt>
<trkpt lat="30.9712700" lon="34.9741100">
<ele>576.320007</ele>
<time>2023-12-12T10:01:28.888Z</time>
</trkpt>
<trkpt lat="30.9717800" lon="34.9737900">
<ele>580.429993</ele>
<time>2023-12-12T10:01:28.888Z</time>
</trkpt>
<trkpt lat="30.9718300" lon="34.9735800">
<ele>581.229980</ele>
<time>2023-12-12T10:01:28.888Z</time>
</trkpt>
<trkpt lat="30.9718200" lon="34.9728300">
<ele>579.969971</ele>
<time>2023-12-12T10:01:28.888Z</time>
</trkpt>
<trkpt lat="30.9717800" lon="34.9721800">
<ele>580.549988</ele>
<time>2023-12-12T10:01:28.888Z</time>
</trkpt>
<trkpt lat="30.9717400" lon="34.9715200">
<ele>580.960022</ele>
<time>2023-12-12T10:01:28.888Z</time>
</trkpt>
<trkpt lat="30.9717100" lon="34.9715100">
<ele>580.140015</ele>
<time>2023-12-12T10:01:28.888Z</time>
</trkpt>
<trkpt lat="30.9715400" lon="34.9716100">
<ele>577.729980</ele>
<time>2023-12-12T10:01:28.888Z</time>
</trkpt>
<trkpt lat="30.9711700" lon="34.9722300">
<ele>577.179993</ele>
<time>2023-12-12T10:01:28.888Z</time>
</trkpt>
<trkpt lat="30.9709500" lon="34.9723100">
<ele>578.609985</ele>
<time>2023-12-12T10:01:28.888Z</time>
</trkpt>
<trkpt lat="30.9707700" lon="34.9722900">
<ele>582.510010</ele>
<time>2023-12-12T10:01:28.888Z</time>
</trkpt>
<trkpt lat="30.9705600" lon="34.9723000">
<ele>590.190002</ele>
<time>2023-12-12T10:01:28.888Z</time>
</trkpt>
<trkpt lat="30.9703300" lon="34.9722900">
<ele>596.309998</ele>
<time>2023-12-12T10:01:28.888Z</time>
</trkpt>
<trkpt lat="30.9698800" lon="34.9720500">
<ele>596.049988</ele>
<time>2023-12-12T10:01:28.888Z</time>
</trkpt>
<trkpt lat="30.9696800" lon="34.9720200">
<ele>587.989990</ele>
<time>2023-12-12T10:01:28.888Z</time>
</trkpt>
<trkpt lat="30.9692600" lon="34.9717700">
<ele>585.630005</ele>
<time>2023-12-12T10:01:28.888Z</time>
</trkpt>
<trkpt lat="30.9691300" lon="34.9714500">
<ele>588.270020</ele>
<time>2023-12-12T10:01:28.888Z</time>
</trkpt>
<trkpt lat="30.9691000" lon="34.9712100">
<ele>588.000000</ele>
<time>2023-12-12T10:01:28.888Z</time>
</trkpt>
<trkpt lat="30.9690400" lon="34.9711500">
<ele>588.330017</ele>
<time>2023-12-12T10:01:28.888Z</time>
</trkpt>
<trkpt lat="30.9688800" lon="34.9711100">
<ele>590.029968</ele>
<time>2023-12-12T10:01:28.888Z</time>
</trkpt>
<trkpt lat="30.9685900" lon="34.9709300">
<ele>592.739990</ele>
<time>2023-12-12T10:01:28.888Z</time>
</trkpt>
<trkpt lat="30.9682000" lon="34.9710100">
<ele>597.349976</ele>
<time>2023-12-12T10:01:28.888Z</time>
</trkpt>
<trkpt lat="30.9679800" lon="34.9709900">
<ele>597.429993</ele>
<time>2023-12-12T10:01:28.888Z</time>
</trkpt>
<trkpt lat="30.9675900" lon="34.9705200">
<ele>604.849976</ele>
<time>2023-12-12T10:01:28.888Z</time>
</trkpt>
<trkpt lat="30.9674000" lon="34.9704600">
<ele>608.450012</ele>
<time>2023-12-12T10:01:28.888Z</time>
</trkpt>
<trkpt lat="30.9667300" lon="34.9703900">
<ele>614.580017</ele>
<time>2023-12-12T10:01:28.888Z</time>
</trkpt>
<trkpt lat="30.9666900" lon="34.9702200">
<ele>617.770020</ele>
<time>2023-12-12T10:01:28.888Z</time>
</trkpt>
<trkpt lat="30.9666300" lon="34.9693000">
<ele>618.019958</ele>
<time>2023-12-12T10:01:28.888Z</time>
</trkpt>
<trkpt lat="30.9666400" lon="34.9691200">
<ele>616.739990</ele>
<time>2023-12-12T10:01:28.888Z</time>
</trkpt>
<trkpt lat="30.9666700" lon="34.9690000">
<ele>615.959961</ele>
<time>2023-12-12T10:01:28.888Z</time>
</trkpt>
<trkpt lat="30.9666700" lon="34.9686700">
<ele>616.770020</ele>
<time>2023-12-12T10:01:28.888Z</time>
</trkpt>
<trkpt lat="30.9666400" lon="34.9679000">
<ele>617.459961</ele>
<time>2023-12-12T10:01:28.888Z</time>
</trkpt>
<trkpt lat="30.9666600" lon="34.9676500">
<ele>616.559998</ele>
<time>2023-12-12T10:01:28.888Z</time>
</trkpt>
<trkpt lat="30.9666400" lon="34.9674700">
<ele>617.400024</ele>
<time>2023-12-12T10:01:28.888Z</time>
</trkpt>
<trkpt lat="30.9665000" lon="34.9670700">
<ele>620.920044</ele>
<time>2023-12-12T10:01:28.888Z</time>
</trkpt>
<trkpt lat="30.9661700" lon="34.9670700">
<ele>626.099976</ele>
<time>2023-12-12T10:01:28.888Z</time>
</trkpt>
<trkpt lat="30.9660800" lon="34.9670400">
<ele>627.529968</ele>
<time>2023-12-12T10:01:28.888Z</time>
</trkpt>
<trkpt lat="30.9659900" lon="34.9664800">
<ele>622.979980</ele>
<time>2023-12-12T10:01:28.888Z</time>
</trkpt>
<trkpt lat="30.9660200" lon="34.9660300">
<ele>617.479980</ele>
<time>2023-12-12T10:01:28.888Z</time>
</trkpt>
<trkpt lat="30.9659900" lon="34.9659100">
<ele>616.200012</ele>
<time>2023-12-12T10:01:28.888Z</time>
</trkpt>
<trkpt lat="30.9656400" lon="34.9659300">
<ele>619.850037</ele>
<time>2023-12-12T10:01:28.888Z</time>
</trkpt>
<trkpt lat="30.9652800" lon="34.9659200">
<ele>619.010010</ele>
<time>2023-12-12T10:01:28.888Z</time>
</trkpt>
<trkpt lat="30.9651100" lon="34.9659000">
<ele>617.329956</ele>
<time>2023-12-12T10:01:28.888Z</time>
</trkpt>
<trkpt lat="30.9650900" lon="34.9656700">
<ele>616.970032</ele>
<time>2023-12-12T10:01:28.888Z</time>
</trkpt>
<trkpt lat="30.9651600" lon="34.9651300">
<ele>617.200012</ele>
<time>2023-12-12T10:01:28.888Z</time>
</trkpt>
<trkpt lat="30.9651700" lon="34.9648100">
<ele>615.419983</ele>
<time>2023-12-12T10:01:28.888Z</time>
</trkpt>
<trkpt lat="30.9647000" lon="34.9648200">
<ele>617.179993</ele>
<time>2023-12-12T10:01:28.888Z</time>
</trkpt>
<trkpt lat="30.9643400" lon="34.9648000">
<ele>624.799988</ele>
<time>2023-12-12T10:01:28.888Z</time>
</trkpt>
<trkpt lat="30.9642900" lon="34.9647800">
<ele>626.220032</ele>
<time>2023-12-12T10:01:28.888Z</time>
</trkpt>
<trkpt lat="30.9641400" lon="34.9644900">
<ele>627.809998</ele>
<time>2023-12-12T10:01:28.888Z</time>
</trkpt>
<trkpt lat="30.9641300" lon="34.9641700">
<ele>628.260010</ele>
<time>2023-12-12T10:01:28.888Z</time>
</trkpt>
<trkpt lat="30.9641900" lon="34.9638200">
<ele>626.890015</ele>
<time>2023-12-12T10:01:28.888Z</time>
</trkpt>
<trkpt lat="30.9641900" lon="34.9631200">
<ele>635.229980</ele>
<time>2023-12-12T10:01:28.888Z</time>
</trkpt>
<trkpt lat="30.9643300" lon="34.9627900">
<ele>631.210022</ele>
<time>2023-12-12T10:01:28.888Z</time>
</trkpt>
<trkpt lat="30.9644500" lon="34.9627500">
<ele>630.219971</ele>
<time>2023-12-12T10:01:28.888Z</time>
</trkpt>
<trkpt lat="30.9647500" lon="34.9627600">
<ele>625.830017</ele>
<time>2023-12-12T10:01:28.888Z</time>
</trkpt>
<trkpt lat="30.9648800" lon="34.9627300">
<ele>621.809998</ele>
<time>2023-12-12T10:01:28.888Z</time>
</trkpt>
<trkpt lat="30.9652800" lon="34.9622300">
<ele>616.059998</ele>
<time>2023-12-12T10:01:28.888Z</time>
</trkpt>
<trkpt lat="30.9654100" lon="34.9621900">
<ele>616.119995</ele>
<time>2023-12-12T10:01:28.888Z</time>
</trkpt>
<trkpt lat="30.9654400" lon="34.9621500">
<ele>615.849976</ele>
<time>2023-12-12T10:01:28.888Z</time>
</trkpt>
<trkpt lat="30.9654600" lon="34.9620400">
<ele>614.889954</ele>
<time>2023-12-12T10:01:28.888Z</time>
</trkpt>
<trkpt lat="30.9654600" lon="34.9616800">
<ele>611.410034</ele>
<time>2023-12-12T10:01:28.888Z</time>
</trkpt>
<trkpt lat="30.9654800" lon="34.9612200">
<ele>607.419983</ele>
<time>2023-12-12T10:01:28.888Z</time>
</trkpt>
<trkpt lat="30.9655100" lon="34.9608500">
<ele>604.010010</ele>
<time>2023-12-12T10:01:28.888Z</time>
</trkpt>
<trkpt lat="30.9655000" lon="34.9602200">
<ele>600.140015</ele>
<time>2023-12-12T10:01:28.888Z</time>
</trkpt>
<trkpt lat="30.9655200" lon="34.9596100">
<ele>594.520020</ele>
<time>2023-12-12T10:01:28.888Z</time>
</trkpt>
<trkpt lat="30.9655300" lon="34.9590000">
<ele>583.429993</ele>
<time>2023-12-12T10:01:28.888Z</time>
</trkpt>
<trkpt lat="30.9656500" lon="34.9587400">
<ele>579.460022</ele>
<time>2023-12-12T10:01:28.888Z</time>
</trkpt>
<trkpt lat="30.9658700" lon="34.9584700">
<ele>577.380005</ele>
<time>2023-12-12T10:01:28.888Z</time>
</trkpt>
<trkpt lat="30.9659100" lon="34.9580400">
<ele>576.690002</ele>
<time>2023-12-12T10:01:28.888Z</time>
</trkpt>
<trkpt lat="30.9663400" lon="34.9575200">
<ele>570.479980</ele>
<time>2023-12-12T10:01:28.888Z</time>
</trkpt>
<trkpt lat="30.9665200" lon="34.9574700">
<ele>569.460022</ele>
<time>2023-12-12T10:01:28.888Z</time>
</trkpt>
<trkpt lat="30.9665800" lon="34.9574200">
<ele>568.559998</ele>
<time>2023-12-12T10:01:28.888Z</time>
</trkpt>
<trkpt lat="30.9668800" lon="34.9568400">
<ele>564.989990</ele>
<time>2023-12-12T10:01:28.888Z</time>
</trkpt>
<trkpt lat="30.9669800" lon="34.9567600">
<ele>564.029968</ele>
<time>2023-12-12T10:01:28.888Z</time>
</trkpt>
<trkpt lat="30.9673800" lon="34.9565900">
<ele>553.020020</ele>
<time>2023-12-12T10:01:28.888Z</time>
</trkpt>
<trkpt lat="30.9679100" lon="34.9565800">
<ele>549.200012</ele>
<time>2023-12-12T10:01:28.888Z</time>
</trkpt>
<trkpt lat="30.9684300" lon="34.9565600">
<ele>545.539978</ele>
<time>2023-12-12T10:01:28.888Z</time>
</trkpt>
<trkpt lat="30.9692600" lon="34.9564000">
<ele>551.039978</ele>
<time>2023-12-12T10:01:28.888Z</time>
</trkpt>
<trkpt lat="30.9693100" lon="34.9563700">
<ele>552.119995</ele>
<time>2023-12-12T10:01:28.888Z</time>
</trkpt>
<trkpt lat="30.9693800" lon="34.9562800">
<ele>553.280029</ele>
<time>2023-12-12T10:01:28.888Z</time>
</trkpt>
<trkpt lat="30.9694800" lon="34.9560700">
<ele>553.440002</ele>
<time>2023-12-12T10:01:28.888Z</time>
</trkpt>
<trkpt lat="30.9696700" lon="34.9558500">
<ele>551.289978</ele>
<time>2023-12-12T10:01:28.888Z</time>
</trkpt>
<trkpt lat="30.9697000" lon="34.9556300">
<ele>552.059998</ele>
<time>2023-12-12T10:01:28.888Z</time>
</trkpt>
<trkpt lat="30.9697100" lon="34.9552000">
<ele>552.290039</ele>
<time>2023-12-12T10:01:28.888Z</time>
</trkpt>
<trkpt lat="30.9696600" lon="34.9544500">
<ele>549.330017</ele>
<time>2023-12-12T10:01:28.888Z</time>
</trkpt>
<trkpt lat="30.9695400" lon="34.9540700">
<ele>551.869995</ele>
<time>2023-12-12T10:01:28.888Z</time>
</trkpt>
<trkpt lat="30.9695200" lon="34.9537200">
<ele>555.330017</ele>
<time>2023-12-12T10:01:28.888Z</time>
</trkpt>
<trkpt lat="30.9693600" lon="34.9532500">
<ele>560.929993</ele>
<time>2023-12-12T10:01:28.888Z</time>
</trkpt>
<trkpt lat="30.9693300" lon="34.9526500">
<ele>564.450012</ele>
<time>2023-12-12T10:01:28.888Z</time>
</trkpt>
<trkpt lat="30.9692000" lon="34.9523400">
<ele>562.709961</ele>
<time>2023-12-12T10:01:28.888Z</time>
</trkpt>
<trkpt lat="30.9690900" lon="34.9522100">
<ele>562.039978</ele>
<time>2023-12-12T10:01:28.888Z</time>
</trkpt>
<trkpt lat="30.9688600" lon="34.9520900">
<ele>562.640015</ele>
<time>2023-12-12T10:01:28.888Z</time>
</trkpt>
<trkpt lat="30.9688600" lon="34.9518400">
<ele>561.989990</ele>
<time>2023-12-12T10:01:28.888Z</time>
</trkpt>
<trkpt lat="30.9687200" lon="34.9511800">
<ele>564.359985</ele>
<time>2023-12-12T10:01:28.888Z</time>
</trkpt>
<trkpt lat="30.9685700" lon="34.9505100">
<ele>573.159973</ele>
<time>2023-12-12T10:01:28.888Z</time>
</trkpt>
<trkpt lat="30.9682000" lon="34.9498300">
<ele>569.290039</ele>
<time>2023-12-12T10:01:28.888Z</time>
</trkpt>
<trkpt lat="30.9681000" lon="34.9495600">
<ele>564.670044</ele>
<time>2023-12-12T10:01:28.888Z</time>
</trkpt>
<trkpt lat="30.9679400" lon="34.9492400">
<ele>559.350037</ele>
<time>2023-12-12T10:01:28.888Z</time>
</trkpt>
<trkpt lat="30.9678200" lon="34.9486500">
<ele>555.330017</ele>
<time>2023-12-12T10:01:28.888Z</time>
</trkpt>
<trkpt lat="30.9678300" lon="34.9483800">
<ele>555.190002</ele>
<time>2023-12-12T10:01:28.888Z</time>
</trkpt>
<trkpt lat="30.9680100" lon="34.9481400">
<ele>553.280029</ele>
<time>2023-12-12T10:01:28.888Z</time>
</trkpt>
<trkpt lat="30.9680200" lon="34.9480600">
<ele>552.190002</ele>
<time>2023-12-12T10:01:28.888Z</time>
</trkpt>
<trkpt lat="30.9680300" lon="34.9474100">
<ele>546.659973</ele>
<time>2023-12-12T10:01:28.888Z</time>
</trkpt>
<trkpt lat="30.9680200" lon="34.9468500">
<ele>548.530029</ele>
<time>2023-12-12T10:01:28.888Z</time>
</trkpt>
<trkpt lat="30.9680300" lon="34.9463300">
<ele>545.260010</ele>
<time>2023-12-12T10:01:28.888Z</time>
</trkpt>
<trkpt lat="30.9681000" lon="34.9457300">
<ele>542.530029</ele>
<time>2023-12-12T10:01:28.888Z</time>
</trkpt>
<trkpt lat="30.9681700" lon="34.9451200">
<ele>538.219971</ele>
<time>2023-12-12T10:01:28.888Z</time>
</trkpt>
<trkpt lat="30.9686900" lon="34.9443500">
<ele>540.250000</ele>
<time>2023-12-12T10:01:28.888Z</time>
</trkpt>
<trkpt lat="30.9687200" lon="34.9440000">
<ele>543.350037</ele>
<time>2023-12-12T10:01:28.888Z</time>
</trkpt>
<trkpt lat="30.9687200" lon="34.9431700">
<ele>542.200012</ele>
<time>2023-12-12T10:01:28.888Z</time>
</trkpt>
<trkpt lat="30.9687500" lon="34.9428800">
<ele>537.340027</ele>
<time>2023-12-12T10:01:28.888Z</time>
</trkpt>
<trkpt lat="30.9688800" lon="34.9427200">
<ele>535.760010</ele>
<time>2023-12-12T10:01:28.888Z</time>
</trkpt>
<trkpt lat="30.9691300" lon="34.9426800">
<ele>537.429993</ele>
<time>2023-12-12T10:01:28.888Z</time>
</trkpt>
<trkpt lat="30.9695400" lon="34.9426600">
<ele>532.220032</ele>
<time>2023-12-12T10:01:28.888Z</time>
</trkpt>
<trkpt lat="30.9700400" lon="34.9426600">
<ele>522.209961</ele>
<time>2023-12-12T10:01:28.888Z</time>
</trkpt>
<trkpt lat="30.9703600" lon="34.9426500">
<ele>522.830017</ele>
<time>2023-12-12T10:01:28.888Z</time>
</trkpt>
<trkpt lat="30.9706400" lon="34.9426300">
<ele>525.270020</ele>
<time>2023-12-12T10:01:28.888Z</time>
</trkpt>
<trkpt lat="30.9708600" lon="34.9425500">
<ele>524.850037</ele>
<time>2023-12-12T10:01:28.888Z</time>
</trkpt>
<trkpt lat="30.9714700" lon="34.9424100">
<ele>529.580017</ele>
<time>2023-12-12T10:01:28.888Z</time>
</trkpt>
<trkpt lat="30.9720000" lon="34.9424100">
<ele>533.940002</ele>
<time>2023-12-12T10:01:28.888Z</time>
</trkpt>
<trkpt lat="30.9724500" lon="34.9425300">
<ele>525.270020</ele>
<time>2023-12-12T10:01:28.888Z</time>
</trkpt>
<trkpt lat="30.9726600" lon="34.9425300">
<ele>521.869995</ele>
<time>2023-12-12T10:01:28.888Z</time>
</trkpt>
<trkpt lat="30.9731100" lon="34.9424900">
<ele>515.809998</ele>
<time>2023-12-12T10:01:28.888Z</time>
</trkpt>
<trkpt lat="30.9735600" lon="34.9424600">
<ele>520.950012</ele>
<time>2023-12-12T10:01:28.888Z</time>
</trkpt>
<trkpt lat="30.9741700" lon="34.9424700">
<ele>525.510010</ele>
<time>2023-12-12T10:01:28.888Z</time>
</trkpt>
<trkpt lat="30.9743000" lon="34.9424800">
<ele>524.330017</ele>
<time>2023-12-12T10:01:28.888Z</time>
</trkpt>
<trkpt lat="30.9745900" lon="34.9427000">
<ele>520.169983</ele>
<time>2023-12-12T10:01:28.888Z</time>
</trkpt>
<trkpt lat="30.9748900" lon="34.9428800">
<ele>518.260010</ele>
<time>2023-12-12T10:01:28.888Z</time>
</trkpt>
<trkpt lat="30.9753500" lon="34.9429500">
<ele>513.040039</ele>
<time>2023-12-12T10:01:28.888Z</time>
</trkpt>
<trkpt lat="30.9754000" lon="34.9429800">
<ele>513.020020</ele>
<time>2023-12-12T10:01:28.888Z</time>
</trkpt>
<trkpt lat="30.9754600" lon="34.9431000">
<ele>512.019958</ele>
<time>2023-12-12T10:01:28.888Z</time>
</trkpt>
<trkpt lat="30.9754700" lon="34.9435500">
<ele>512.250000</ele>
<time>2023-12-12T10:01:28.888Z</time>
</trkpt>
<trkpt lat="30.9755200" lon="34.9438500">
<ele>515.029968</ele>
<time>2023-12-12T10:01:28.888Z</time>
</trkpt>
<trkpt lat="30.9756500" lon="34.9438600">
<ele>515.580017</ele>
<time>2023-12-12T10:01:28.888Z</time>
</trkpt>
<trkpt lat="30.9757500" lon="34.9438500">
<ele>516.410034</ele>
<time>2023-12-12T10:01:28.888Z</time>
</trkpt>
<trkpt lat="30.9762300" lon="34.9433700">
<ele>520.230042</ele>
<time>2023-12-12T10:01:28.888Z</time>
</trkpt>
<trkpt lat="30.9767000" lon="34.9428800">
<ele>514.750000</ele>
<time>2023-12-12T10:01:28.888Z</time>
</trkpt>
<trkpt lat="30.9767900" lon="34.9428200">
<ele>513.630005</ele>
<time>2023-12-12T10:01:28.888Z</time>
</trkpt>
<trkpt lat="30.9771100" lon="34.9427400">
<ele>512.919983</ele>
<time>2023-12-12T10:01:28.888Z</time>
</trkpt>
<trkpt lat="30.9771800" lon="34.9427000">
<ele>512.760010</ele>
<time>2023-12-12T10:01:28.888Z</time>
</trkpt>
<trkpt lat="30.9774700" lon="34.9422700">
<ele>511.130005</ele>
<time>2023-12-12T10:01:28.888Z</time>
</trkpt>
<trkpt lat="30.9772900" lon="34.9418300">
<ele>517.979980</ele>
<time>2023-12-12T10:01:28.888Z</time>
</trkpt>
<trkpt lat="30.9771900" lon="34.9417000">
<ele>521.809998</ele>
<time>2023-12-12T10:01:28.888Z</time>
</trkpt>
<trkpt lat="30.9768800" lon="34.9415800">
<ele>524.389954</ele>
<time>2023-12-12T10:01:28.888Z</time>
</trkpt>
<trkpt lat="30.9767800" lon="34.9414600">
<ele>524.739990</ele>
<time>2023-12-12T10:01:28.888Z</time>
</trkpt>
<trkpt lat="30.9767100" lon="34.9411300">
<ele>525.130005</ele>
<time>2023-12-12T10:01:28.888Z</time>
</trkpt>
<trkpt lat="30.9767000" lon="34.9408000">
<ele>523.520020</ele>
<time>2023-12-12T10:01:28.888Z</time>
</trkpt>
<trkpt lat="30.9766400" lon="34.9405100">
<ele>518.419983</ele>
<time>2023-12-12T10:01:28.888Z</time>
</trkpt>
<trkpt lat="30.9764400" lon="34.9404700">
<ele>516.440002</ele>
<time>2023-12-12T10:01:28.888Z</time>
</trkpt>
<trkpt lat="30.9763600" lon="34.9404200">
<ele>515.890015</ele>
<time>2023-12-12T10:01:28.888Z</time>
</trkpt>
<trkpt lat="30.9762800" lon="34.9401500">
<ele>516.640015</ele>
<time>2023-12-12T10:01:28.888Z</time>
</trkpt>
<trkpt lat="30.9760900" lon="34.9396500">
<ele>518.489990</ele>
<time>2023-12-12T10:01:28.888Z</time>
</trkpt>
<trkpt lat="30.9760800" lon="34.9394300">
<ele>517.110046</ele>
<time>2023-12-12T10:01:28.888Z</time>
</trkpt>
<trkpt lat="30.9760800" lon="34.9390300">
<ele>512.700012</ele>
<time>2023-12-12T10:01:28.888Z</time>
</trkpt>
<trkpt lat="30.9761100" lon="34.9388500">
<ele>510.550018</ele>
<time>2023-12-12T10:01:28.888Z</time>
</trkpt>
<trkpt lat="30.9764000" lon="34.9382400">
<ele>507.869995</ele>
<time>2023-12-12T10:01:28.888Z</time>
</trkpt>
<trkpt lat="30.9763800" lon="34.9377400">
<ele>498.650024</ele>
<time>2023-12-12T10:01:28.888Z</time>
</trkpt>
<trkpt lat="30.9766100" lon="34.9374200">
<ele>496.349976</ele>
<time>2023-12-12T10:01:28.888Z</time>
</trkpt>
<trkpt lat="30.9772300" lon="34.9367300">
<ele>505.440002</ele>
<time>2023-12-12T10:01:28.888Z</time>
</trkpt>
<trkpt lat="30.9774000" lon="34.9363000">
<ele>501.730011</ele>
<time>2023-12-12T10:01:28.888Z</time>
</trkpt>
<trkpt lat="30.9774300" lon="34.9359300">
<ele>503.220001</ele>
<time>2023-12-12T10:01:28.888Z</time>
</trkpt>
<trkpt lat="30.9774300" lon="34.9354700">
<ele>503.490021</ele>
<time>2023-12-12T10:01:28.888Z</time>
</trkpt>
<trkpt lat="30.9773600" lon="34.9355000">
<ele>501.980011</ele>
<time>2023-12-12T10:01:28.888Z</time>
</trkpt>
<trkpt lat="30.9772200" lon="34.9352300">
<ele>498.980011</ele>
<time>2023-12-12T10:01:28.888Z</time>
</trkpt>
<trkpt lat="30.9772000" lon="34.9344800">
<ele>499.909973</ele>
<time>2023-12-12T10:01:28.888Z</time>
</trkpt>
<trkpt lat="30.9770800" lon="34.9338100">
<ele>507.009979</ele>
<time>2023-12-12T10:01:28.888Z</time>
</trkpt>
<trkpt lat="30.9770200" lon="34.9329300">
<ele>504.250000</ele>
<time>2023-12-12T10:01:28.888Z</time>
</trkpt>
<trkpt lat="30.9769500" lon="34.9326500">
<ele>502.609985</ele>
<time>2023-12-12T10:01:28.888Z</time>
</trkpt>
<trkpt lat="30.9767400" lon="34.9323200">
<ele>501.690002</ele>
<time>2023-12-12T10:01:28.888Z</time>
</trkpt>
<trkpt lat="30.9767400" lon="34.9320300">
<ele>501.260010</ele>
<time>2023-12-12T10:01:28.888Z</time>
</trkpt>
<trkpt lat="30.9769000" lon="34.9316100">
<ele>504.070007</ele>
<time>2023-12-12T10:01:28.888Z</time>
</trkpt>
<trkpt lat="30.9768800" lon="34.9314800">
<ele>505.009979</ele>
<time>2023-12-12T10:01:28.888Z</time>
</trkpt>
<trkpt lat="30.9768700" lon="34.9314300">
<ele>505.299988</ele>
<time>2023-12-12T10:01:28.888Z</time>
</trkpt>
<trkpt lat="30.9767000" lon="34.9312900">
<ele>503.710022</ele>
<time>2023-12-12T10:01:28.888Z</time>
</trkpt>
<trkpt lat="30.9765600" lon="34.9310600">
<ele>504.160004</ele>
<time>2023-12-12T10:01:28.888Z</time>
</trkpt>
<trkpt lat="30.9761600" lon="34.9301500">
<ele>507.529999</ele>
<time>2023-12-12T10:01:28.888Z</time>
</trkpt>
<trkpt lat="30.9757800" lon="34.9298700">
<ele>507.329987</ele>
<time>2023-12-12T10:01:28.888Z</time>
</trkpt>
<trkpt lat="30.9753900" lon="34.9295900">
<ele>505.450012</ele>
<time>2023-12-12T10:01:28.888Z</time>
</trkpt>
<trkpt lat="30.9750000" lon="34.9291800">
<ele>498.050018</ele>
<time>2023-12-12T10:01:28.888Z</time>
</trkpt>
<trkpt lat="30.9749600" lon="34.9290900">
<ele>496.730011</ele>
<time>2023-12-12T10:01:28.888Z</time>
</trkpt>
<trkpt lat="30.9748100" lon="34.9284400">
<ele>495.209991</ele>
<time>2023-12-12T10:01:28.888Z</time>
</trkpt>
<trkpt lat="30.9747000" lon="34.9278100">
<ele>491.460022</ele>
<time>2023-12-12T10:01:28.888Z</time>
</trkpt>
<trkpt lat="30.9745900" lon="34.9271800">
<ele>489.010010</ele>
<time>2023-12-12T10:01:28.888Z</time>
</trkpt>
<trkpt lat="30.9745400" lon="34.9263600">
<ele>485.609985</ele>
<time>2023-12-12T10:01:28.888Z</time>
</trkpt>
<trkpt lat="30.9744600" lon="34.9254900">
<ele>487.570007</ele>
<time>2023-12-12T10:01:28.888Z</time>
</trkpt>
<trkpt lat="30.9744600" lon="34.9249300">
<ele>487.059967</ele>
<time>2023-12-12T10:01:28.888Z</time>
</trkpt>
<trkpt lat="30.9744600" lon="34.9243600">
<ele>477.369995</ele>
<time>2023-12-12T10:01:28.888Z</time>
</trkpt>
<trkpt lat="30.9745100" lon="34.9240600">
<ele>476.290009</ele>
<time>2023-12-12T10:01:28.888Z</time>
</trkpt>
<trkpt lat="30.9745800" lon="34.9239500">
<ele>477.080017</ele>
<time>2023-12-12T10:01:28.888Z</time>
</trkpt>
<trkpt lat="30.9748700" lon="34.9233900">
<ele>478.960022</ele>
<time>2023-12-12T10:01:28.888Z</time>
</trkpt>
<trkpt lat="30.9751700" lon="34.9228300">
<ele>480.729980</ele>
<time>2023-12-12T10:01:28.888Z</time>
</trkpt>
<trkpt lat="30.9755200" lon="34.9220100">
<ele>476.919983</ele>
<time>2023-12-12T10:01:28.888Z</time>
</trkpt>
<trkpt lat="30.9758500" lon="34.9213800">
<ele>474.119995</ele>
<time>2023-12-12T10:01:28.888Z</time>
</trkpt>
<trkpt lat="30.9761800" lon="34.9206300">
<ele>470.720001</ele>
<time>2023-12-12T10:01:28.888Z</time>
</trkpt>
<trkpt lat="30.9766800" lon="34.9199400">
<ele>475.379974</ele>
<time>2023-12-12T10:01:28.888Z</time>
</trkpt>
<trkpt lat="30.9771100" lon="34.9190900">
<ele>476.250000</ele>
<time>2023-12-12T10:01:28.888Z</time>
</trkpt>
<trkpt lat="30.9773400" lon="34.9184700">
<ele>472.160004</ele>
<time>2023-12-12T10:01:28.888Z</time>
</trkpt>
<trkpt lat="30.9773900" lon="34.9181600">
<ele>470.600006</ele>
<time>2023-12-12T10:01:28.888Z</time>
</trkpt>
<trkpt lat="30.9774200" lon="34.9177900">
<ele>468.909973</ele>
<time>2023-12-12T10:01:28.888Z</time>
</trkpt>
<trkpt lat="30.9773200" lon="34.9175800">
<ele>467.620026</ele>
<time>2023-12-12T10:01:28.888Z</time>
</trkpt>
<trkpt lat="30.9771500" lon="34.9175400">
<ele>467.899994</ele>
<time>2023-12-12T10:01:28.888Z</time>
</trkpt>
<trkpt lat="30.9770900" lon="34.9173300">
<ele>469.519989</ele>
<time>2023-12-12T10:01:28.888Z</time>
</trkpt>
<trkpt lat="30.9771200" lon="34.9169900">
<ele>472.200012</ele>
<time>2023-12-12T10:01:28.888Z</time>
</trkpt>
<trkpt lat="30.9770300" lon="34.9167200">
<ele>472.020020</ele>
<time>2023-12-12T10:01:28.888Z</time>
</trkpt>
<trkpt lat="30.9770000" lon="34.9164600">
<ele>470.459991</ele>
<time>2023-12-12T10:01:28.888Z</time>
</trkpt>
<trkpt lat="30.9769700" lon="34.9162600">
<ele>469.110016</ele>
<time>2023-12-12T10:01:28.888Z</time>
</trkpt>
<trkpt lat="30.9769900" lon="34.9160000">
<ele>468.029999</ele>
<time>2023-12-12T10:01:28.888Z</time>
</trkpt>
<trkpt lat="30.9768600" lon="34.9153700">
<ele>469.209991</ele>
<time>2023-12-12T10:01:28.888Z</time>
</trkpt>
<trkpt lat="30.9772400" lon="34.9149200">
<ele>468.229980</ele>
<time>2023-12-12T10:01:28.888Z</time>
</trkpt>
<trkpt lat="30.9776200" lon="34.9144700">
<ele>463.839996</ele>
<time>2023-12-12T10:01:28.888Z</time>
</trkpt>
<trkpt lat="30.9778000" lon="34.9139400">
<ele>465.610016</ele>
<time>2023-12-12T10:01:28.888Z</time>
</trkpt>
<trkpt lat="30.9779800" lon="34.9134100">
<ele>464.809998</ele>
<time>2023-12-12T10:01:28.888Z</time>
</trkpt>
<trkpt lat="30.9781600" lon="34.9128800">
<ele>460.250000</ele>
<time>2023-12-12T10:01:28.888Z</time>
</trkpt>
<trkpt lat="30.9782100" lon="34.9123800">
<ele>455.750000</ele>
<time>2023-12-12T10:01:28.888Z</time>
</trkpt>
<trkpt lat="30.9786100" lon="34.9119000">
<ele>453.799988</ele>
<time>2023-12-12T10:01:28.888Z</time>
</trkpt>
<trkpt lat="30.9788700" lon="34.9114800">
<ele>457.829987</ele>
<time>2023-12-12T10:01:28.888Z</time>
</trkpt>
<trkpt lat="30.9792200" lon="34.9112300">
<ele>458.299988</ele>
<time>2023-12-12T10:01:28.888Z</time>
</trkpt>
<trkpt lat="30.9793300" lon="34.9111900">
<ele>457.959991</ele>
<time>2023-12-12T10:01:28.888Z</time>
</trkpt>
<trkpt lat="30.9794800" lon="34.9112000">
<ele>457.019989</ele>
<time>2023-12-12T10:01:28.888Z</time>
</trkpt>
<trkpt lat="30.9796900" lon="34.9111900">
<ele>455.160004</ele>
<time>2023-12-12T10:01:28.888Z</time>
</trkpt>
<trkpt lat="30.9801800" lon="34.9110800">
<ele>452.169983</ele>
<time>2023-12-12T10:01:28.888Z</time>
</trkpt>
<trkpt lat="30.9804700" lon="34.9109700">
<ele>458.549988</ele>
<time>2023-12-12T10:01:28.888Z</time>
</trkpt>
<trkpt lat="30.9813600" lon="34.9110700">
<ele>450.910004</ele>
<time>2023-12-12T10:01:28.888Z</time>
</trkpt>
<trkpt lat="30.9818400" lon="34.9110700">
<ele>450.000000</ele>
<time>2023-12-12T10:01:28.888Z</time>
</trkpt>
<trkpt lat="30.9823200" lon="34.9110600">
<ele>446.819977</ele>
<time>2023-12-12T10:01:28.888Z</time>
</trkpt>
<trkpt lat="30.9823700" lon="34.9109900">
<ele>446.640015</ele>
<time>2023-12-12T10:01:28.888Z</time>
</trkpt>
<trkpt lat="30.9825600" lon="34.9109600">
<ele>446.519989</ele>
<time>2023-12-12T10:01:28.888Z</time>
</trkpt>
<trkpt lat="30.9829900" lon="34.9104900">
<ele>448.700012</ele>
<time>2023-12-12T10:01:28.888Z</time>
</trkpt>
<trkpt lat="30.9834100" lon="34.9100200">
<ele>452.129974</ele>
<time>2023-12-12T10:01:28.888Z</time>
</trkpt>
<trkpt lat="30.9838500" lon="34.9093900">
<ele>452.340027</ele>
<time>2023-12-12T10:01:28.888Z</time>
</trkpt>
<trkpt lat="30.9842800" lon="34.9091100">
<ele>451.149994</ele>
<time>2023-12-12T10:01:28.888Z</time>
</trkpt>
<trkpt lat="30.9847000" lon="34.9088300">
<ele>449.989990</ele>
<time>2023-12-12T10:01:28.888Z</time>
</trkpt>
<trkpt lat="30.9850000" lon="34.9088000">
<ele>448.959991</ele>
<time>2023-12-12T10:01:28.888Z</time>
</trkpt>
<trkpt lat="30.9852400" lon="34.9087200">
<ele>447.910004</ele>
<time>2023-12-12T10:01:28.888Z</time>
</trkpt>
<trkpt lat="30.9854100" lon="34.9088200">
<ele>447.840027</ele>
<time>2023-12-12T10:01:28.888Z</time>
</trkpt>
<trkpt lat="30.9855200" lon="34.9090300">
<ele>447.869995</ele>
<time>2023-12-12T10:01:28.888Z</time>
</trkpt>
<trkpt lat="30.9857200" lon="34.9091800">
<ele>448.480011</ele>
<time>2023-12-12T10:01:28.888Z</time>
</trkpt>
<trkpt lat="30.9861000" lon="34.9092300">
<ele>452.890015</ele>
<time>2023-12-12T10:01:28.888Z</time>
</trkpt>
<trkpt lat="30.9862100" lon="34.9091900">
<ele>456.570007</ele>
<time>2023-12-12T10:01:28.888Z</time>
</trkpt>
<trkpt lat="30.9865400" lon="34.9093000">
<ele>462.650024</ele>
<time>2023-12-12T10:01:28.888Z</time>
</trkpt>
<trkpt lat="30.9867500" lon="34.9092900">
<ele>464.070007</ele>
<time>2023-12-12T10:01:28.888Z</time>
</trkpt>
<trkpt lat="30.9873300" lon="34.9099100">
<ele>464.869995</ele>
<time>2023-12-12T10:01:28.888Z</time>
</trkpt>
<trkpt lat="30.9877300" lon="34.9102000">
<ele>463.750000</ele>
<time>2023-12-12T10:01:28.888Z</time>
</trkpt>
<trkpt lat="30.9881300" lon="34.9104800">
<ele>465.369995</ele>
<time>2023-12-12T10:01:28.888Z</time>
</trkpt>
<trkpt lat="30.9885400" lon="34.9107700">
<ele>462.160004</ele>
<time>2023-12-12T10:01:28.888Z</time>
</trkpt>
<trkpt lat="30.9889400" lon="34.9110500">
<ele>464.000000</ele>
<time>2023-12-12T10:01:28.888Z</time>
</trkpt>
<trkpt lat="30.9893400" lon="34.9113400">
<ele>454.900024</ele>
<time>2023-12-12T10:01:28.888Z</time>
</trkpt>
<trkpt lat="30.9896100" lon="34.9115700">
<ele>451.399994</ele>
<time>2023-12-12T10:01:28.888Z</time>
</trkpt>
</trkseg>
</trk>
</gpx>
